     2              OBSERVATION DATA    GPS                 RINEX VERSION / TYPE
ASRINEXO V2.2.0 UX USGS 03-FEB-94 10:26                     PGM / RUN BY / DATE
                                                            COMMENT
Original Marker Name: SDGP                                  COMMENT
Campaign Name: USGS-So. Cal Monit                           COMMENT
4-Character Station Name: SDG6                              COMMENT
6-Character Antenna Code: ASHP12                            COMMENT
Vertical Measurement Point: EGP                             COMMENT
Vertical Offset to Rinex Ref. Point: 0.0593                 COMMENT
Radial Measurement Point: EGP                               COMMENT
Radial Offset to Rinex Ref. Point: 0.1425                   COMMENT
Antenna Height from Field Measurement: 1.5220 m             COMMENT
Additional Antenna Identification Info.:                    COMMENT
Ashtech L1/L2 Revision B                                    COMMENT
Original XYZ: -2363874.7900 -3547654.4200 4728641.7300      COMMENT
New XYZ position is based on association with SCEC monument COMMENT
E1D0H4E1+0011. Position of that monument is believed to be  COMMENT
valid to within 1 m horizontally; vertical accuracy         COMMENT
should be no worse than 3-times this value.                 COMMENT
                                                            COMMENT
Revised Rinex header created by UCSD GPS archive for        COMMENT
GSAC on 11-Nov-1999 (1999:315) 16:06:02 GMT                 COMMENT
For assistance contact dagnew@ucsd.edu or hjohnson@ucsd.edu COMMENT
                                                            COMMENT
SDGP                                                        MARKER NAME
                                                            MARKER NUMBER
JMS US GEOLOGICAL SURVEY                                    OBSERVER / AGENCY
99 ASHTECH L-XII 6A                                         REC # / TYPE / VERS
36 ASHTECH GEODETIC P                                       ANT # / TYPE
 -2396149.0000 -4763662.0000  3490106.0000                  APPROX POSITION XYZ
        1.4560        0.0000        0.0000                  ANTENNA: DELTA H/E/N
     1     2     0                                          WAVELENGTH FACT L1/2
     3    C1    L1    L2                                    # / TYPES OF OBSERV
    30                                                      INTERVAL
  1991    11    20    16     7    0.000000                  TIME OF FIRST OBS
  1991    11    20    21     1    0.000000                  TIME OF LAST OBS
                                                            END OF HEADER
 91 11 20 16  7  0.0000000  0  1 17
  21724235.930      -58220.213 7    -45366.316 3
 91 11 20 16  7 30.0000000  0  2 17  3
  21113360.223     -117560.777 7    -91605.702 2
  20746468.819     -116503.606 8    -90781.974 5
 91 11 20 16  8  0.0000000  0  2 17  3
  22001519.069     -176540.779 7   -137564.111 3
  21634685.513     -175148.708 8   -136479.480 5
 91 11 20 16  8 30.0000000  0  4 17 16 20  3
  21990421.342     -234843.409 7   -182994.694 4
  21710012.571      130507.139 8    101694.082 7
  21510346.901      159386.018 8    124196.928 7
  21623633.069     -233244.361 8   -181748.851 6
 91 11 20 16  9  0.0000000  0  4 17 16 20  3
  21979492.410     -292281.031 7   -227751.262 3
  21720018.736      183107.186 8    142681.083 7
  21523472.117      228358.024 8    177941.259 7
  21612717.329     -290597.266 8   -226439.448 5
 91 11 20 16  9 30.0000000  0  4 17 16 20  3
  21968742.151     -348751.401 7   -271754.123 6
  21730261.158      236912.957 8    184607.592 6
  21536814.676      298498.494 8    232596.069 6
  21601967.664     -347092.277 8   -270461.570 6
 91 11 20 16 10  0.0000000  0  4 17 16 20  3
  21958195.466     -404194.644 7   -314956.644 6
  21740740.398      291994.851 8    227528.489 6
  21550401.275      369879.233 8    288217.336 6
  21591390.092     -402668.229 8   -313767.536 7
 91 11 20 16 10 30.0000000  0  5 17 16 20  3 23
  21947811.243     -458744.767 7   -357463.224 6
  21751443.297      348232.502 8    271349.986 6
  21564193.526      442366.004 8    344700.431 7
  21580964.808     -457465.859 8   -356467.030 6
  24711165.916     -325864.376 5   -253920.339 3
 91 11 20 16 11  0.0000000  0  5 17 16 20  3 23
  21937595.816     -512432.262 7   -399297.626 5
  21762356.628      405574.088 8    316031.667 6
  21578185.425      515906.133 8    402004.328 7
  21570673.839     -511537.590 8   -398600.876 6
  24690553.683     -434216.249 5   -338350.121 2
 91 11 20 16 11 30.0000000  0  5 17 16 20  3 23
  21927552.168     -565228.864 7   -440437.820 4
  21773474.738      464035.905 8    361586.267 7
  21592383.603      590514.871 8    460140.909 6
  21560524.653     -564855.344 8   -440147.212 6
  24670061.980     -541868.994 5   -422235.127 2
 91 11 20 16 12  0.0000000  0  5 17 16 20  3 23
  21917669.813     -617159.439 7   -480903.201 5
  21784810.783      523583.073 8    407986.600 6
  21606777.240      666149.623 8    519076.975 7
  21550518.489     -617455.477 8   -481134.347 6
  24649703.666     -648864.409 5   -505608.276 2
 91 11 20 16 12 30.0000000  0  5 17 16 20  3 23
  21907946.343     -668255.509 7   -520718.319 5
  21796340.509      584167.959 8    455195.536 6
  21621356.147      742766.813 8    578778.567 6
  21540638.524     -669375.013 8   -521591.145 6
  24629460.785     -755245.480 5   -588502.787 2
 91 11 20 16 13  0.0000000  0  5 17 16 20  3 23
  21898376.364     -718529.217 7   -559892.637 5
  21808059.098      645746.041 8    503178.385 5
  21636118.822      820346.789 8    639230.396 6
  21530886.575     -720625.699 8   -561526.761 6
  24609329.708     -861009.519 5   -670916.050 2
 91 11 20 16 13 30.0000000  0  5 17 16 20  3 23
  21888960.785     -768029.192 7   -598464.049 4
  21819958.453      708268.800 8    551897.358 6
  21651059.279      898849.763 8    700401.448 6
  21521253.653     -771242.560 8   -600968.485 6
  24589320.660     -966180.010 5   -752867.243 1
 91 11 20 16 14  0.0000000  0  5 17 16 20  3 23
  21879678.909     -816799.828 7   -636467.152 5
  21832023.900      771684.580 8    601312.188 6
  21666159.529      978222.257 8    762250.042 6
  21511735.537     -821271.699 8   -639952.216 4
  24569404.552    -1070804.787 4   -834393.198 2
 91 11 20 16 14 30.0000000  0  5 17 16 20  3 23
  21870527.457     -864893.214 7   -673942.518 5
  21844250.047      835926.549 8    651370.791 7
  21681424.368     1058415.421 8    824738.109 5
  21502318.754     -870754.232 8   -678510.049 5
  24549596.670    -1174921.609 5   -915523.365 2
 91 11 20 16 15  0.0000000  0  5 17 16 20  3 23
  21861503.391     -912319.729 7   -710898.250 5
  21856628.463      900975.607 8    702058.294 6
  21696833.696     1139418.648 8    887857.419 5
  21493001.803     -919696.025 8   -716646.519 6
  24529883.823    -1278524.281 5   -996252.534 2
 91 11 20 16 15 30.0000000  0  5 17 16 20  3 23
  21852595.666     -959108.145 7   -747356.770 6
  21869159.499      966824.816 8    753369.281 7
  21712399.813     1221215.772 8    951595.333 6
  21483788.891     -968110.083 8   -754371.778 6
  24510271.697    -1381633.220 5  -1076596.936 1
 91 11 20 16 16  0.0000000  0  5 17 16 20  3 23
  21843805.450    -1005297.836 7   -783348.741 4
  21881836.524     1033450.983 8    805285.706 6
  21728115.235     1303760.202 8   1015915.550 5
  21474670.698    -1016031.844 8   -791713.432 6
  24490721.032    -1484282.793 5  -1156583.406 2
 91 11 20 16 16 30.0000000  0  5 17 16 20  3 23
  21835128.853    -1050906.274 7   -818887.780 5
  21894660.445     1100841.659 8    857797.839 6
  21743956.874     1387043.350 8   1080811.381 6
  21465642.741    -1063478.146 8   -828684.600 5
  24471275.591    -1586474.768 5  -1236213.331 2
 91 11 20 16 17  0.0000000  0  5 17 16 20  3 23
  21826558.388    -1095940.094 7   -853979.079 5
  21907634.263     1169011.242 8    910916.931 5
  21759948.097     1471058.024 8   1146277.238 7
  21456702.942    -1110457.450 8   -865291.877 5
  24451925.184    -1688207.180 5  -1315485.174 2
 91 11 20 16 17 30.0000000  0  5 17 16 20  3 23
  21818118.939    -1140285.207 7   -888533.734 4
  21920778.954     1238089.570 7    964744.118 4
  21776092.532     1555909.415 7   1212395.079 7
  21447870.741    -1156853.782 7   -901444.889 4
  24432661.418    -1789365.077 4  -1394309.305 3
 91 11 20 16 18  0.0000000  0  5 17 16 20  3 23
  21809773.616    -1184151.212 7   -922715.009 4
  21934058.866     1307872.080 8   1019120.007 6
  21792360.463     1641391.688 8   1279004.516 6
  21439115.007    -1202880.722 8   -937310.060 6
  24413492.092    -1890160.244 5  -1472850.812 2
 91 11 20 16 18 30.0000000  0  5 17 16 20  3 23
  21801516.121    -1227543.888 7   -956527.479 5
  21947467.386     1378344.103 7   1074033.167 7
  21808747.718     1727505.447 7   1346106.023 6
  21430428.516    -1248539.579 8   -972888.407 6
  24394383.615    -1990590.531 5  -1551108.012 3
 91 11 20 16 19  0.0000000  0  5 17 16 20  3 23
  21793348.285    -1270474.374 7   -989979.800 7
  21961010.815     1449490.283 8   1129471.643 6
  21825248.295     1814232.292 7   1413685.257 6
  21421811.581    -1293832.014 8  -1008181.232 5
  24375328.815    -2090680.397 5  -1629099.982 1
 91 11 20 16 19 30.0000000  0  5 17 16 20  3 23
  21785262.569    -1312953.030 7  -1023080.058 5
  21974674.457     1521288.582 8   1185418.257 6
  21841867.289     1901551.732 7   1481726.250 6
  21413258.810    -1338762.688 8  -1043192.173 4
  24356347.148    -2190455.172 5  -1706846.384 2
 91 11 20 16 20  0.0000000  0  5 17 16 20  3 23
  21777267.717    -1354980.367 7  -1055828.630 5
  21988457.407     1593727.998 8   1241864.445 6
  21858597.214     1989467.395 7   1550231.828 5
  21404779.174    -1383322.295 8  -1077913.963 5
  24337417.658    -2289911.263 5  -1784344.517 2
 91 11 20 16 20 30.0000000  0  5 17 16 20  3 23
  21769364.583    -1396519.542 8  -1088196.807 5
  22002362.683     1666814.576 8   1298814.910 6
  21875442.538     2077987.533 7   1619208.423 6
  21396376.300    -1427479.950 8  -1112322.538 4
  24318556.817    -2389024.039 5  -1861575.056 2
 91 11 20 16 21  0.0000000  0  5 17 16 20  3 23
  21761547.793    -1437568.984 7  -1120183.374 5
  22016393.565     1740535.459 8   1356259.630 6
  21892400.310     2167114.151 7   1688657.612 6
  21388051.063    -1471234.683 8  -1146417.162 5
  24299757.436    -2487789.498 5  -1938534.985 2
 91 11 20 16 21 30.0000000  0  5 17 16 20  3 23
  21753832.633    -1478134.673 7  -1151792.984 4
  22030540.474     1814887.122 8   1414195.880 6
  21909480.688     2256855.020 7   1758585.449 6
  21379800.164    -1514589.844 8  -1180200.424 5
  24281030.298    -2586188.748 5  -2015209.558 1
 91 11 20 16 22  0.0000000  0  5 17 16 20  3 23
  21746202.909    -1518224.081 7  -1183031.478 5
  22044808.802     1889853.131 8   1472610.862 5
  21926674.073     2347206.428 7   1828989.022 5
  21371620.043    -1557559.460 8  -1213683.265 5
  24262375.998    -2684224.176 5  -2091600.582 1
 91 11 20 16 22 30.0000000  0  5 17 16 20  3 23
  21738660.733    -1557850.691 7  -1213909.360 6
  22059190.748     1965424.777 8   1531497.773 5
  21943979.891     2438151.289 8   1899855.001 6
  21363515.446    -1600159.951 8  -1246878.469 6
  24243796.071    -2781903.561 5  -2167714.213 2
 91 11 20 16 23  0.0000000  0  5 17 16 20  3 23
  21731198.008    -1597088.708 7  -1244484.433 6
  22073674.306     2041556.878 8   1590821.409 6
  21961390.043     2529637.919 7   1971143.165 4
  21355472.309    -1642447.276 8  -1279829.641 6
  24225261.409    -2879269.724 5  -2243584.152 2
 91 11 20 16 23 30.0000000  0  5 17 16 20  3 23
  21723804.525    -1635924.862 8  -1274746.360 3
  22088274.205     2118271.345 7   1650598.830 5
  21978902.418     2621653.867 7   2042843.790 6
  21347484.647    -1684409.297 8  -1312527.316 5
  24206792.378    -2976327.275 4  -2319213.292 3
 91 11 20 16 24  0.0000000  0  5 17 16 20  3 23
  21716491.680    -1674342.787 7  -1304682.377 6
  22102984.128     2195571.135 7   1710832.352 5
  21996505.936     2714183.298 7   2114944.527 4
  21339563.225    -1726040.740 8  -1344967.394 6
  24188386.621    -3073078.189 5  -2394603.836 2
 91 11 20 16 24 30.0000000  0  5 17 16 20  3 23
  21709266.383    -1712321.590 7  -1334276.218 6
  22117809.763     2273482.710 7   1771542.568 6
  22014217.366     2807250.204 7   2187464.062 5
  21331708.673    -1767309.575 8  -1377124.937 6
  24170047.716    -3169494.399 5  -2469733.225 1
 91 11 20 16 25  0.0000000  0  5 17 16 20  3 23
  21702128.633    -1749817.026 8  -1363493.405 6
  22132751.722     2352022.419 7   1832742.256 5
  22032035.836     2900887.568 7   2260428.126 5
  21323935.054    -1808177.722 8  -1408970.252 5
  24151756.485    -3265545.359 5  -2544578.316 3
 91 11 20 16 25 30.0000000  0  5 17 16 20  3 23
  21695091.606    -1786810.260 8  -1392319.277 6
  22147820.177     2431189.903 7   1894431.105 6
  22049964.032     2995089.495 7   2333832.091 6
  21316233.977    -1848639.936 8  -1440499.265 6
  24133547.986    -3361234.050 5  -2619140.831 2
 91 11 20 16 26  0.0000000  0  5 17 16 20  3 23
  21688127.730    -1823405.087 8  -1420834.699 6
  22162983.980     2510890.477 7   1956535.361 6
  22067984.855     3089778.821 7   2407615.847 6
  21308595.563    -1888784.565 8  -1471780.815 6
  24115395.554    -3456636.572 5  -2693480.674 3
 91 11 20 16 26 30.0000000  0  5 17 16 20  3 23
  21681249.290    -1859558.125 8  -1449005.874 5
  22178266.514     2591183.529 7   2019101.278 5
  22086105.510     3185013.392 7   2481824.470 6
  21301027.299    -1928548.381 8  -1502765.634 5
  24097300.690    -3551684.452 5  -2767543.821 2
 91 11 20 16 27  0.0000000  0  5 17 16 20  3 23
  21674455.379    -1895249.122 7  -1476817.009 6
  22193665.040     2672102.579 7   2082154.991 6
  22104336.189     3280802.014 7   2556464.822 5
  21293536.688    -1967910.399 8  -1533437.357 6
  24079296.358    -3646355.629 5  -2841313.772 2
 91 11 20 16 27 30.0000000  0  5 17 16 20  3 23
  21667746.032    -1930511.325 7  -1504294.043 6
  22209181.110     2753641.341 7   2145691.594 5
  22122659.807     3377122.187 7   2631519.354 6
  21286118.321    -2006889.904 8  -1563811.012 6
  24061349.874    -3740662.910 5  -2914799.846 3
 91 11 20 16 28  0.0000000  0  5 17 16 20  3 23
  21661116.416    -1965344.174 7  -1531436.505 7
  22224809.892     2835800.251 7   2209711.427 5
  22141095.247     3473991.022 7   2707001.424 6
  21278776.404    -2045479.465 8  -1593880.817 5
  24043473.853    -3834590.922 5  -2987990.722 3
 91 11 20 16 28 30.0000000  0  5 17 16 20  3 23
  21654576.144    -1999727.911 7  -1558229.028 6
  22240565.781     2918571.354 7   2274208.266 6
  22159635.300     3571405.147 7   2782908.391 6
  21271506.451    -2083681.893 8  -1623648.959 6
  24025668.576    -3928136.758 5  -3060883.421 3
 91 11 20 16 29  0.0000000  0  5 17 16 20  3 23
  21648112.618    -2033672.409 7  -1584679.303 6
  22256423.893     3001929.520 7   2339162.576 5
  22178271.609     3669352.953 7   2859231.219 5
  21264308.725    -2121515.314 8  -1653129.567 6
  24007937.043    -4021320.483 5  -3133494.330 4
 91 11 20 16 29 30.0000000  0  5 17 16 20  3 23
  21641735.733    -2067193.846 8  -1610799.917 5
  22272394.140     3085832.710 7   2404541.557 6
  22197009.234     3767815.193 7   2935954.898 5
  21257170.661    -2158997.090 8  -1682336.155 6
  23990273.880    -4114153.694 5  -3205831.675 2
 91 11 20 16 30  0.0000000  0  5 17 16 20  3 23
  21635437.391    -2100315.414 8  -1636608.944 5
  22288457.921     3170246.227 7   2470318.195 5
  22215837.095     3866762.782 7   3013056.776 6
  21250106.359    -2196149.252 8  -1711285.897 6
  23972672.160    -4206664.033 5  -3277917.903 2
 91 11 20 16 30 30.0000000  0  5 17 16 20  3 23
  21629205.621    -2133047.921 8  -1662114.799 6
  22304613.140     3255150.594 7   2536477.325 6
  22234752.799     3966168.816 7   3090515.869 6
  21243096.607    -2232976.716 8  -1739982.626 6
  23955124.116    -4298869.929 5  -3349766.850 2
 91 11 20 16 31  0.0000000  0  5 17 16 20  3 23
  21623043.670    -2165418.922 8  -1687338.963 5
  22320860.392     3340522.390 7   2603000.695 5
  22253751.846     4066011.813 7   3168315.460 5
  21236147.721    -2269483.668 8  -1768429.612 6
  23937629.732    -4390785.948 6  -3421389.546 2
 91 11 20 16 31 30.0000000  0  5 17 16 20  3 23
  21616955.499    -2197415.662 8  -1712271.505 5
  22337192.784     3426355.135 7   2669883.229 5
  22272835.142     4166289.767 7   3246453.998 6
  21229266.280    -2305660.911 8  -1796619.669 6
  23920199.495    -4482411.757 6  -3492786.483 3
 91 11 20 16 32  0.0000000  0  5 17 16 20  3 23
  21610930.270    -2229072.012 8  -1736938.791 6
  22353608.815     3512614.236 7   2737097.988 5
  22291994.870     4266971.492 7   3324907.156 5
  21222441.203    -2341536.346 8  -1824574.569 6
  23902813.319    -4573786.988 6  -3563987.720
 91 11 20 16 32 30.0000000  0  5 17 16 20  3 23
  21604973.394    -2260367.493 8  -1761324.883 6
  22370108.798     3599318.313 7   2804659.493 4
  22311232.863     4368065.232 7   3403681.358 6
  21215670.396    -2377096.350 8  -1852283.712 7
  23885468.832    -4664888.685 6  -3634975.811 3
 91 11 20 16 33  0.0000000  0  5 17 16 20  3 23
  21599086.057    -2291336.159 8  -1785456.310 6
  22386687.325     3686447.163 7   2872551.970 5
  22330544.583     4469539.738 7   3482752.250 5
  21208955.954    -2412377.344 8  -1879775.392 7
  23868177.098    -4755737.966 5  -3705767.644 3
 91 11 20 16 33 30.0000000  0  5 17 16 20  3 23
  21593249.413    -2321986.758 8  -1809339.870 6
  22403347.083     3774006.417 7   2940779.842 4
  22349921.671     4571380.652 7   3562108.675 5
  21202294.560    -2447392.794 8  -1907060.191 6
  23850945.932    -4846343.613 6  -3776369.310 2
 91 11 20 16 34  0.0000000  0  5 17 16 20  3 23
  21587473.303    -2352352.399 8  -1833001.380 5
  22420094.092     3861994.772 7   3009342.080 5
  22369365.314     4673563.468 7   3641731.496 5
  21195677.839    -2482163.424 8  -1934154.209 6
  23833748.638    -4936710.057 6  -3846784.925 3
 91 11 20 16 34 30.0000000  0  5 17 16 20  3 23
  21581750.557    -2382425.318 8  -1856434.809 6
  22436925.333     3950424.585 7   3078248.285 4
  22388879.108     4776093.116 7   3721624.575 5
  21189110.589    -2516678.936 8  -1961049.435 6
  23816603.503    -5026816.528 5  -3916997.644 2
 91 11 20 16 35  0.0000000  0  5 17 16 20  3 23
  21576091.085    -2412172.496 8  -1879614.402 6
  22453842.028     4039321.529 7   3147518.490 5
  22408461.847     4879005.658 7   3801816.034 4
  21182596.998    -2550900.569 8  -1987715.665 6
  23799507.245    -5116635.954 5  -3986987.034 2
 91 11 20 16 35 30.0000000  0  5 17 16 20  3 23
  21570494.259    -2441576.067 8  -1902526.272 6
  22470848.958     4128694.416 7   3217159.564 5
  22428121.628     4982323.477 7   3882323.278 5
  21176143.960    -2584801.072 8  -2014131.678 6
  23782472.133    -5206154.124 5  -4056741.346 4
 91 11 20 16 36  0.0000000  0  5 17 16 20  3 23
  21564952.890    -2470688.648 8  -1925211.387 5
  22487933.227     4218485.091 7   3287126.203 5
  22447851.874     5086002.130 7   3963111.693 5
  21169747.897    -2618426.736 8  -2040333.510 6
  23765474.208    -5295422.784 5  -4126301.114 2
 91 11 20 16 36 30.0000000  0  5 17 16 20  3 23
  21559472.387    -2499508.077 8  -1947668.056 5
  22505096.650     4308677.515 7   3357405.872 5
  22467654.067     5190046.280 7   4044184.887 5
  21163400.380    -2651776.385 8  -2066320.266 6
  23748533.536    -5384451.025 5  -4195673.668 4
 91 11 20 16 37  0.0000000  0  5 17 16 20  3 23
  21554037.744    -2528054.021 8  -1969911.633 5
  22522329.909     4399241.500 8   3427975.066 5
  22487512.328     5294426.082 7   4125519.658 4
  21157104.743    -2684868.068 8  -2092106.011 6
  23731639.021    -5473258.923 5  -4264874.540 3
 91 11 20 16 37 30.0000000  0  5 17 16 20  3 23
  21548662.466    -2556309.251 8  -1991928.693 6
  22539638.431     4490186.834 8   3498841.406 6
  22507443.722     5399151.111 7   4207123.417 5
  21150860.671    -2717681.894 8  -2117675.237 6
  23714802.387    -5561815.468 6  -4333879.484 2
 91 11 20 16 38  0.0000000  0  5 17 16 20  3 23
  21543340.551    -2584267.874 8  -2013714.622 6
  22557015.306     4581509.375 8   3570001.685 4
  22527437.187     5504210.522 7   4288987.757 3
  21144668.444    -2750217.841 8  -2143027.938 6
  23697987.619    -5650113.269 5  -4402682.882 3
 91 11 20 16 38 30.0000000  0  5 17 16 20  3 23
  21538086.395    -2611895.762 8  -2035242.853 6
  22574468.612     4673222.863 7   3641466.594 5
  22547492.687     5609611.382 7   4371118.129 3
  21138532.599    -2782446.909 8  -2168141.499 6
  23681242.425    -5738118.790 6  -4471258.561 4
 91 11 20 16 39  0.0000000  0  5 17 16 20  3 23
  21532875.097    -2639263.228 8  -2056568.146 5
  22591982.192     4765260.743 7   3713184.288 5
  22567596.472     5715271.617 7   4453450.662 3
  21132447.708    -2814431.726 8  -2193064.739 6
  23664535.587    -5825892.706 6  -4539653.775 3
 91 11 20 16 39 30.0000000  0  5 17 16 20  3 23
  21527716.568    -2666377.628 8  -2077696.245 6
  22609560.232     4857630.509 7   3785160.615 4
  22587756.622     5821196.387 7   4535989.279 4
  21126411.398    -2846174.625 8  -2217799.466 6
  23647878.220    -5913447.745 6  -4607878.389
 91 11 20 16 40  0.0000000  0  5 17 16 20  3 23
  21522612.310    -2693213.955 8  -2098607.664 6
  22627209.609     4950369.999 7   3857425.012 5
  22607969.820     5927409.855 7   4618752.867 4
  21120420.634    -2877646.846 8  -2242323.285 6
  23631265.822    -6000772.244 6  -4675923.376 4
 91 11 20 16 40 30.0000000  0  5 17 16 20  3 23
  21517544.906    -2719829.185 8  -2119346.800 7
  22644915.054     5043425.870 7   3929935.956 4
  22628232.803     6033860.581 7   4701701.347 4
  21114473.355    -2908896.698 8  -2266673.813 6
  23614671.694    -6087915.628 5  -4743827.295 4
 91 11 20 16 41  0.0000000  0  5 17 16 20  3 23
  21512527.585    -2746189.342 8  -2139887.181 7
  22662693.650     5136845.101 7   4002730.043 4
  22648537.143     6140598.928 7   4784873.957 4
  21108574.030    -2939880.610 8  -2290817.123 6
  23598136.357    -6174834.443 6  -4811556.220 4
 91 11 20 16 41 30.0000000  0  5 17 16 20  3 23
  21507560.031    -2772304.898 8  -2160236.975 7
  22680533.392     5230602.999 7   4075788.023 4
  22668905.945     6247607.515 7   4868257.119 4
  21102725.380    -2970613.924 8  -2314765.162 7
  23581627.979    -6261543.613 5  -4879121.788 2
 91 11 20 16 42  0.0000000  0  5 17 16 20  3 23
  21502640.134    -2798152.436 8  -2180377.921 6
  22698445.098     5324707.092 7   4149115.806 5
  22689319.419     6354906.948 7   4951866.889 4
  21096934.892    -3001071.771 8  -2338498.539 6
  23565181.969    -6347999.881 6  -4946490.231 2
 91 11 20 16 42 30.0000000  0  5 17 16 20  3 23
  21497775.101    -2823729.904 8  -2200308.404 7
  22716412.557     5419156.755 7   4222712.838 4
  22709798.227     6462514.140 7   5035716.494 4
  21091190.280    -3031241.627 8  -2362007.521 6
  23548780.614    -6434167.701 5  -5013633.936 3
 91 11 20 16 43  0.0000000  0  5 17 16 20  3 23
  21492947.236    -2849100.206 8  -2220077.477 6
  22734445.071     5513890.176 7   4296530.996 5
  22730317.537     6570370.569 7   5119760.296 3
  21085491.510    -3061186.468 8  -2385341.157 6
  23532431.139    -6520112.599 6  -5080603.956 4
 91 11 20 16 43 30.0000000  0  5 17 16 20  3 23
  21488175.753    -2874173.040 8  -2239614.757 6
  22752539.953     5608990.389 7   4370634.975 5
  22750910.277     6678559.711 7   5204063.368 4
  21079850.029    -3090823.182 8  -2408434.681 6
  23516134.712    -6605756.145 6  -5147339.162 4
 91 11 20 16 44  0.0000000  0  5 17 16 20  3 23
  21483451.613    -2899002.921 8  -2258962.722 6
  22770695.979     5704400.091 7   4444980.115 4
  22771544.095     6787020.209 7   5288577.873 4
  21074260.689    -3120212.595 8  -2431335.507 6
  23499878.473    -6691160.463 6  -5213887.960 4
 91 11 20 16 44 30.0000000  0  5 17 16 20  3 23
  21478767.957    -2923605.722 8  -2278133.759 6
  22788908.667     5800110.249 7   4519559.364 4
  22792231.572     6895708.891 7   5373270.174 5
  21068711.538    -3149374.341 8  -2454058.934 6
  23483673.189    -6776359.060 6  -5280276.414 2
 91 11 20 16 45  0.0000000  0  5 17 16 20  3 23
  21474143.667    -2947911.006 8  -2297072.974 7
  22807193.005     5896192.204 7   4594428.303 5
  22812963.111     7004675.817 7   5458179.774 4
  21063220.233    -3178242.140 8  -2476553.307 6
  23467499.385    -6861301.313 6  -5346465.089 3
 91 11 20 16 45 30.0000000  0  5 17 16 20  3 23
  21469567.330    -2971958.714 8  -2315811.472 7
  22825534.911     5992592.074 7   4669544.961 5
  22833742.621     7113866.233 7   5543263.041 4
  21057775.102    -3206853.419 8  -2498847.806 6
  23451382.242    -6946021.149 6  -5412480.509 3
 91 11 20 16 46  0.0000000  0  5 17 16 20  3 23
  21465037.463    -2995758.678 8  -2334356.931 6
  22843940.965     6089308.799 7   4744908.519 5
  22854559.021     7223269.812 7   5628512.401 4
  21052380.333    -3235201.238 8  -2520937.002 5
  23435304.675    -7030510.220 6  -5478316.113 3
 91 11 20 16 46 30.0000000  0  5 17 16 20  3 23
  21460549.563    -3019341.708 8  -2352733.333 5
  22862400.695     6186318.659 7   4820500.488 5
  22875423.670     7332873.693 7   5713917.808 4
  21047032.644    -3263295.266 8  -2542828.441 6
  23419272.968    -7114778.518 6  -5543979.658 4
 91 11 20 16 47  0.0000000  0  5 17 16 20  3 23
  21456100.648    -3042709.526 8  -2370942.040 6
  22880914.678     6283597.009 7   4896301.698 4
  22896315.909     7442692.999 7   5799491.112 4
  21041735.316    -3291129.638 8  -2564517.562 6
  23403280.245    -7198825.667 6  -5609470.811 2
 91 11 20 16 47 30.0000000  0  5 17 16 20  3 23
  21451702.094    -3065841.955 8  -2388967.330 6
  22899477.522     6381132.536 7   4972303.276 2
  22917257.618     7552732.206 7   5885235.764 4
  21036490.444    -3318699.342 8  -2586000.453 6
  23387329.786    -7282656.742 6  -5674793.618 2
 91 11 20 16 48  0.0000000  0  5 17 16 20  3 23
  21447344.321    -3088715.590 8  -2406790.961 6
  22918092.838     6478969.109 7   5048539.449 5
  22938244.576     7663023.513 7   5971176.866 2
  21031303.733    -3345970.910 8  -2607251.025 7
  23371416.200    -7366235.472 6  -5739919.835 2
 91 11 20 16 48 30.0000000  0  5 17 16 20  3 23
  21443045.285    -3111324.558 8  -2424408.349 6
  22936764.205     6577084.124 7   5124992.580 3
  22959286.712     7773553.704 7   6057304.104 4
  21026166.790    -3372947.950 8  -2628272.106 6
  23355557.791    -7449565.047 6  -5804851.793 2
 91 11 20 16 49  0.0000000  0  5 17 16 20  3 23
  21438788.531    -3133703.767 8  -2441846.698 7
  22955482.355     6675440.182 7   5201633.523 3
  22980342.040     7884272.475 6   6143578.264 3
  21021082.913    -3399667.199 8  -2649092.315 6
  23339753.024    -7532679.143 6  -5869615.875 4
 91 11 20 16 49 30.0000000  0  5 17 16 20  3 23
  21434572.559    -3155855.027 8  -2459107.424 6
  22974246.958     6774067.958 7   5278486.209 3
  23001454.622     7995174.086 7   6229994.926 4
  21016048.194    -3426120.018 8  -2669704.913 6
  23323974.345    -7615540.094 6  -5934182.674
 91 11 20 16 50  0.0000000  0  5 17 16 20  3 23
  21430394.645    -3177808.055 8  -2476213.686 6
  22993065.238     6872961.718 7   5355546.157 3
  23022594.497     8106251.357 7   6316548.455 4
  21011063.539    -3452311.631 8  -2690113.978 6
  23308261.332    -7698133.645 6  -5998541.046 3
 91 11 20 16 50 30.0010000  0  5 17 16 20  3 23
  21426261.407    -3199529.634 8  -2493139.584 7
  23011943.463     6972145.751 7   5432832.289 3
  23043770.025     8217529.488 7   6403258.492 4
  21006138.253    -3478214.035 8  -2710297.689 6
  23292603.167    -7780441.436 6  -6062677.241 3
 91 11 20 16 51  0.0010000  0  5 17 16 20  3 23
  21422177.341    -3220981.318 8  -2509855.170 6
  23030883.458     7071680.857 7   5510391.979 2
  23064986.942     8329050.530 6   6490157.820 5
  21001271.423    -3503779.311 9  -2730218.710 7
  23277005.273    -7862412.165 6  -6126550.341 2
 91 11 20 16 51 30.0010000  0  5 17 16 20  3 23
  21418141.821    -3242177.283 8  -2526371.507 6
  23049889.694     7171555.767 7   5588216.431 2
  23086249.422     8440794.206 6   6577230.624 5
  20996464.551    -3529032.012 8  -2749896.170 7
  23261451.440    -7944080.233 6  -6190187.987 3
 91 11 20 16 52  0.0010000  0  5 17 16 20  3 23
  21414156.086    -3263151.526 8  -2542715.070 6
  23068948.996     7271713.561 7   5666261.341 3
  23107555.073     8552717.562 6   6664443.434 4
  20991711.338    -3554012.516 8  -2769361.507 7
  23245972.242    -8025513.895 6  -6253642.551 3
 91 11 20 16 52 30.0010000  0  5 17 16 20  3 23
  21410208.428    -3283887.288 8  -2558872.808 7
  23088060.161     7372160.315 7   5744531.400 3
  23128887.406     8664826.826 6   6751801.112 3
  20987012.396    -3578705.546 8  -2788602.852 7
  23230503.549    -8106709.422 6  -6316911.536 4
 91 11 20 16 53  0.0010000  0  5 17 16 20  3 23
  21406309.613    -3304377.142 8  -2574838.926 7
  23107227.096     7472891.306 7   5823022.936 3
  23150253.313     8777131.720 6   6839311.229 4
  20982370.115    -3603103.017 8  -2807613.896 7
  23215105.616    -8187650.846 6  -6379982.984 4
 91 11 20 16 53 30.0010000  0  5 17 16 20  3 23
  21402447.391    -3324672.138 8  -2590653.208 7
  23126436.592     7573829.696 7   5901676.067 3
  23171658.797     8889580.331 6   6926933.303 3
  20977774.286    -3627252.741 8  -2826431.880 7
  23199747.854    -8268386.274 6  -6442893.510 4
 91 11 20 16 54  0.0010000  0  5 17 16 20  3 23
  21398627.731    -3344741.884 8  -2606291.966 7
  23145685.369     7674993.056 7   5980504.499 2
  23193087.961     9002221.546 6   7014705.482 2
  20973238.433    -3651104.646 8  -2845017.799 6
  23184432.060    -8348866.220 6  -6505604.885 3
 91 11 20 16 54 30.0010000  0  5 17 16 20  3 23
  21394842.866    -3364638.304 8  -2621795.664 7
  23164961.735     7776319.277 7   6059459.823 3
  23214546.197     9115000.885 6   7102585.269 3
  20968744.548    -3674715.606 8  -2863415.965 6
  23169153.434    -8429135.244 6  -6568152.001 3
 91 11 20 16 55  0.0010000  0  5 17 16 20  3 23
  21391107.437    -3384252.539 8  -2637079.481 7
  23184303.434     7877913.034 7   6138623.625 3
  23236050.310     9228013.845 6   7190647.101 2
  20964316.311    -3697981.976 8  -2881545.614 6
  23153935.972    -8509090.200 6  -6630454.334 4
 91 11 20 16 55 30.0010000  0  5 17 16 20  3 23
  21387420.590    -3403616.340 8  -2652168.163 7
  23203678.428     7979741.401 7   6217970.226 2
  23257601.206     9341223.680 6   7278862.354 2
  20959948.033    -3720936.284 8  -2899432.097 7
  23138777.561    -8588769.576 6  -6692542.007 3
 91 11 20 16 56  0.0010000  0  5 17 16 20  3 23
  21383776.322    -3422784.196 8  -2667104.170 7
  23223092.685     8081761.437 7   6297466.194 3
  23279174.562     9454566.107 6   7367180.918 3
  20955624.724    -3743637.592 8  -2917121.450 7
  23123652.724    -8668230.546 6  -6754459.451 5
 91 11 20 16 56 30.0010000  0  5 17 16 20  3 23
  21380187.510    -3441663.075 8  -2681814.988 6
  23242560.305     8184072.821 6   6377189.196 2
  23300777.006     9568118.300 6   7455662.952 2
  20951371.565    -3765997.190 8  -2934544.528 8
  23108592.349    -8747379.638 6  -6816133.944 4
 91 11 20 16 57  0.0010000  0  5 17 16 20  3 23
  21376637.961    -3460303.327 8  -2696339.875 6
  23262080.101     8286638.352 6   6457110.223 2
  23322414.526     9681834.743 6   7544272.978 4
  20947178.365    -3788045.554 8  -2951725.091 7
  23093582.649    -8826258.655 6  -6877597.935 2
 91 11 20 16 57 30.0010000  0  5 17 16 20  3 23
  21373136.679    -3478709.317 8  -2710682.216 6
  23281646.647     8389457.561 6   6537228.916 3
  23344086.527     9795723.366 6   7633017.170 4
  20943044.827    -3809776.367 8  -2968658.219 6
  23078628.405    -8904856.223 6  -6938842.683 5
 91 11 20 16 58  0.0010000  0  5 17 16 20  3 23
  21369680.071    -3496864.533 8  -2724829.146 7
  23301265.665     8492558.649 6   6617567.257 2
  23365802.294     9909811.292 7   7721916.677 3
  20938976.047    -3831149.353 8  -2985312.505 6
  23063734.104    -8983129.245 6  -6999834.549 4
 91 11 20 16 58 30.0010000  0  5 17 16 20  3 23
  21366267.244    -3514781.560 8  -2738790.476 7
  23320929.949     8595911.768 6   6698101.990 2
  23387547.132    10024069.025 7   7810948.467 4
  20934974.416    -3852177.995 8  -3001698.477 6
  23048902.483    -9061087.948 6  -7060581.464 4
 91 11 20 16 59  0.0010000  0  5 17 16 20  3 23
  21362894.867    -3532519.373 8  -2752612.158 7
  23340637.404     8699461.403 6   6778789.812 3
  23409307.868    10138433.054 6   7900063.106 4
  20931026.444    -3872918.906 8  -3017860.252 6
  23034105.012    -9138785.912 6  -7121125.255 4
 91 11 20 16 59 30.0010000  0  5 17 16 20  3 23
  21359553.692    -3550071.476 8  -2766289.140 6
  23360387.439     8803219.438 6   6859640.081 4
  23431088.095    10252903.368 6   7989260.529 4
  20927137.540    -3893366.785 9  -3033793.698 6
  23019378.617    -9216206.975 6  -7181453.296 5
 91 11 20 17  0  0.0010000  0  5 17 16 20  3 23
  21356255.967    -3567423.727 8  -2779810.388 6
  23380166.545     8907201.394 6   6940664.839 4
  23452887.204    10367476.844 6   8078538.310 2
  20923303.204    -3913510.005 9  -3049489.744 6
  23004701.378    -9293339.475 6  -7241556.482 2
 91 11 20 17  0 30.0010000  0  5 17 16 20  3 23
  21352991.834    -3584553.396 8  -2793158.197 7
  23400007.111     9011412.825 7   7021868.412 3
  23474709.696    10482150.992 6   8167894.997 2
  20919526.122    -3933348.853 8  -3064948.620 7
  22990076.909    -9370192.612 6  -7301441.954 4
 91 11 20 17  1  0.0010000  0  5 17 16 20  3 23
  21349769.355    -3601478.688 8  -2806346.752 7
  23419878.250     9115853.872 6   7103250.895 2
  23496554.367    10596941.091 6   8257341.640 2
  20915808.091    -3952883.034 8  -3080170.098 7
  22975497.688    -9446778.102 6  -7361118.887 4
 91 11 20 17  1 30.0010000  0  5 17 16 20  3 23
  21346590.658    -3618206.519 8  -2819381.438 7
  23439789.873     9220502.668 6   7184795.235 3
  23518421.532    10711847.194 6   8346878.612 4
  20912148.816    -3972117.509 8  -3095158.034 6
  22960976.647    -9523103.301 6  -7420593.016 5
 91 11 20 17  2  0.0010000  0  5 17 16 20  3 23
  21343447.943    -3634716.052 8  -2832246.018 6
  23459741.964     9325342.108 6   7266488.157 4
  23540308.485    10826875.791 6   8436511.064 4
  20908546.811    -3991045.993 8  -3109907.536 7
  22946506.263    -9599173.873 6  -7479868.717 3
 91 11 20 17  2 30.0010000  0  5 17 16 20  3 23
  21340348.087    -3651014.692 8  -2844946.272 7
  23479727.628     9430351.000 6   7348313.109 4
  23562225.103    10942028.765 6   8526240.426 5
  20905004.766    -4009666.741 8  -3124417.236 6
  22932072.158    -9674998.900 6  -7538953.086 3
 91 11 20 17  3  0.0010000  0  5 17 16 20  3 23
  21337279.710    -3667124.259 8  -2857499.190 7
  23499739.677     9535519.077 6   7430262.115 4
  23584163.621    11057303.836 6   8616064.921 2
  20901521.476    -4027978.546 8  -3138686.183 6
  22917691.713    -9750558.623 6  -7597830.711 4
 91 11 20 17  3 30.0010000  0  5 17 16 20  3 23
  21334252.708    -3683034.145 8  -2869896.505 7
  23519777.797     9640834.217 6   7512325.704 3
  23606117.723    11172679.408 6   8705968.128 1
  20898094.846    -4045978.928 8  -3152712.468 6
  22903372.117    -9825847.503 6  -7656497.310 5
 91 11 20 17  4  0.0010000  0  5 17 16 20  3 23
  21331262.579    -3698747.609 8  -2882140.771 7
  23539840.801     9746296.016 6   7594503.558 2
  23628095.504    11288139.595 6   8795936.864 4
  20894729.677    -4063666.863 8  -3166495.294 7
  22889093.616    -9900870.638 6  -7714956.817 3
 91 11 20 17  4 30.0010000  0  5 17 16 20  3 23
  21328308.710    -3714269.720 8  -2894235.941 7
  23559950.293     9851932.055 6   7676817.166 2
  23650073.303    11403693.120 6   8885978.340 2
  20891427.467    -4081028.102 8  -3180023.546 6
  22874873.556    -9975592.657 6  -7773181.661 3
 91 11 20 17  5  0.0010000  0  5 17 16 20  3 23
  21325393.844    -3729589.456 8  -2906173.408 7
  23580088.245     9957753.403 6   7759275.216 4
  23672083.752    11519339.874 6   8976092.455 4
  20888187.014    -4098058.801 8  -3193294.226 8
  22860709.266   -10050001.329 6  -7831162.366 5
 91 11 20 17  5 30.0010000  0  5 17 16 20  3 23
  21322516.128    -3744704.368 8  -2917951.284 7
  23600261.273    10063757.791 6   7841875.883 1
  23694106.816    11635056.623 6   9066261.606 4
  20885004.705    -4114764.480 8  -3206311.653 7
  22846601.323   -10124126.393 6  -7888922.108 4
 91 11 20 17  6  0.0010000  0  5 17 16 20  3 23
  21319680.398    -3759610.043 8  -2929566.113 7
  23620470.893    10169959.572 6   7924630.297 2
  23716139.461    11750856.796 6   9156495.649 2
  20881890.470    -4131135.317 8  -3219068.164 7
  22832551.857   -10197958.672 6  -7946453.652 2
 91 11 20 17  6 30.0010000  0  5 17 16 20  3 23
  21316882.430    -3774315.826 9  -2941025.190 8
  23640714.368    10276347.618 6   8007529.869 3
  23738190.987    11866737.119 6   9246792.209 4
  20878840.084    -4147175.355 8  -3231566.896 6
  22818560.237   -10271515.194 6  -8003770.318 3
 91 11 20 17  7  0.0010000  0  5 17 16 20  3 23
  21314125.243    -3788802.356 8  -2952313.411 8
  23660994.138    10382929.726 6   8090580.693 2
  23760258.707    11982709.547 6   9337160.115 2
  20875850.251    -4162862.597 8  -3243790.726 6
  22804612.104   -10344806.662 6  -8060880.484 5
 91 11 20 17  7 30.0010000  0  5 17 16 20  3 23
  21311401.927    -3803127.414 8  -2963475.822 7
  23681305.371    10489648.205 6   8173737.780 3
  23782336.635    12098722.335 6   9427559.450 2
  20872921.284    -4178247.866 8  -3255779.257 7
  22790705.030   -10417888.662 6  -8117827.436 4
 91 11 20 17  8  0.0010000  0  5 17 16 20  3 23
  21308693.305    -3817346.455 9  -2974555.620 7
  23701620.217    10596444.710 6   8256955.635 3
  23804416.640    12214738.674 6   9517961.901 1
  20870044.162    -4193386.505 8  -3267575.594 7
  22776829.123   -10490802.070 6  -8174642.975 3
 91 11 20 17  8 30.0010000  0  5 17 16 20  3 23
  21306021.851    -3831392.332 8  -2985500.482 8
  23721978.217    10703383.386 6   8340284.285 3
  23826506.260    12330817.317 6   9608413.006 2
  20867223.422    -4208207.184 8  -3279124.184 7
  22763004.206   -10563464.343 6  -8231262.843 4
 91 11 20 17  9  0.0010000  0  5 17 16 20  3 23
  21303385.472    -3845245.020 8  -2996294.824 8
  23742353.911    10810482.500 6   8423737.976 3
  23848601.255    12446964.703 6   9698917.222 4
  20864468.033    -4222695.431 8  -3290413.731 7
  22749231.726   -10635833.335 6  -8287654.211 4
 91 11 20 17  9 30.0010000  0  5 17 16 20  3 23
  21300788.077    -3858902.707 9  -3006937.188 7
  23762764.384    10917735.449 6   8507311.510 2
  23870718.742    12563166.406 6   9789463.797 2
  20861771.991    -4236858.270 8  -3301449.697 6
  22735520.427   -10707886.519 6  -8343799.498 4
 91 11 20 17 10  0.0010000  0  5 17 16 20  3 23
  21298223.942    -3872374.595 9  -3017434.788 7
  23783206.337    11025125.380 6   8590991.742 3
  23892836.841    12679399.235 6   9880034.869 2
  20859137.113    -4250700.664 8  -3312235.978 7
  22721870.273   -10779620.218 7  -8399695.779 3
 91 11 20 17 10 30.0010000  0  5 17 16 20  3 23
  21295700.588    -3885625.557 9  -3027760.240 7
  23803667.764    11132679.693 6   8674800.090 3
  23914969.912    12795674.217 6   9970638.488 2
  20856570.605    -4264180.968 8  -3322740.132 7
  22708289.380   -10850990.888 7  -8455309.220 4
 91 11 20 17 11  0.0010000  0  5 17 16 20  3 23
  21293228.503    -3898627.854 9  -3037891.914 9
  23824174.475    11240421.804 6   8758754.781 3
  23937113.785    12912019.553 6  10061296.965 3
  20854084.123    -4277273.791 8  -3332942.344 9
  22694776.228   -10921993.615 7  -8510635.951 5
 91 11 20 17 11 30.0010000  0  5 17 16 20  3 23
  21290785.804    -3911475.464 9  -3047903.045 7
  23844691.062    11348250.902 5   8842777.241 4
  23959241.760    13028353.058 6  10151946.530 1
  20851646.206    -4290064.710 8  -3342909.304 7
  22681314.344   -10992736.159 7  -8565759.950 5
 91 11 20 17 12  0.0010000  0  5 17 16 20  3 23
  21288379.070    -3924115.867 9  -3057752.716 8
  23865238.536    11456228.200 6   8926915.166 2
  23981392.822    13144746.233 6  10242642.690 3
  20849285.034    -4302490.779 8  -3352591.978 7
  22667908.825   -11063185.309 7  -8620655.282 4
 91 11 20 17 12 30.0010000  0  5 17 16 20  3 23
  21286012.192    -3936553.179 8  -3067444.150 8
  23885812.396    11564361.137 6   9011174.794 1
  24003548.386    13261202.452 6  10333387.541 3
  20846989.528    -4314555.572 8  -3361993.143 7
  22654550.684   -11133369.334 7  -8675344.059 4
 91 11 20 17 13  0.0010000  0  5 17 16 20  3 23
  21283669.326    -3948864.963 8  -3077037.765 8
  23906405.432    11672580.282 6   9095501.200 3
  24025715.642    13377671.113 6  10424142.464 2
  20844747.384    -4326329.734 8  -3371167.840 7
  22641231.805   -11203370.822 7  -8729890.598 4
 91 11 20 17 13 30.0010000  0  5 17 16 20  3 23
  21281369.614    -3960947.342 8  -3086452.618 8
  23927036.860    11780974.807 6   9179964.700 4
  24047899.982    13494245.996 6  10514980.171 4
  20842580.190    -4337706.342 8  -3380032.740 6
  22627970.477   -11273070.593 7  -8784202.027 5
 91 11 20 17 14  0.0010000  0  5 17 16 20  3 23
  21279102.290    -3972861.704 9  -3095736.551 7
  23947680.572    11889475.766 6   9264510.713 3
  24070086.730    13610836.247 6  10605829.990 2
  20840481.033    -4348748.187 8  -3388636.794 7
  22614751.134   -11342527.058 7  -8838323.847 4
 91 11 20 17 14 30.0010000  0  5 17 16 20  3 23
  21276874.229    -3984561.940 8  -3104853.628 7
  23968361.453    11998116.452 6   9349165.533 2
  24092281.557    13727474.382 6  10696716.865 1
  20838454.435    -4359402.477 8  -3396938.865 7
  22601591.140   -11411665.246 6  -8892197.682 4
 91 11 20 17 15  0.0010000  0  5 17 16 20  3 23
  21274679.445    -3996099.282 8  -3113843.772 7
  23989047.727    12106824.547 6   9433873.326 2
  24114474.604    13844088.084 6  10787584.904 2
  20836488.092    -4369721.544 8  -3404979.715 7
  22588492.605   -11480513.480 7  -8945845.581 5
 91 11 20 17 15 30.0010000  0  5 17 16 20  3 23
  21272517.345    -4007459.549 9  -3122695.946 7
  24009753.492    12215601.535 6   9518634.361 1
  24136655.646    13960662.580 6  10878422.413 2
  20834588.915    -4379697.562 8  -3412753.250 7
  22575448.044   -11549065.689 7  -8999262.802 4
 91 11 20 17 16  0.0010000  0  5 17 16 20  3 23
  21270394.509    -4018626.962 8  -3131397.851 8
  24030465.260    12324492.493 6   9603484.692 2
  24158836.094    14077232.702 5  10969256.308 2
  20832761.982    -4389302.464 8  -3420237.602 7
  22562466.426   -11617294.326 7  -9052427.895 5
 91 11 20 17 16 30.0010000  0  5 17 16 20  3 23
  21268299.855    -4029613.207 8  -3139958.579 7
  24051206.100    12433504.289 6   9688428.732 3
  24181022.528    14193804.692 5  11060091.818 3
  20831005.495    -4398541.987 8  -3427437.260 7
  22549546.878   -11685198.795 7  -9105340.411 5
 91 11 20 17 17  0.0010000  0  5 17 16 20  3 23
  21266239.996    -4040436.791 8  -3148392.563 9
  24071975.419    12542625.036 6   9773458.113 1
  24203205.663    14310358.074 6  11150912.683 2
  20829308.374    -4407438.107 8  -3434369.320 6
  22536676.784   -11752812.090 7  -9158026.033 5
 91 11 20 17 17 30.0010000  0  5 17 16 20  3 23
  21264220.587    -4051075.021 9  -3156682.116 8
  24092772.920    12651893.932 6   9858602.871 2
  24225379.812    14426937.489 6  11241753.966 4
  20827690.687    -4415954.908 8  -3441005.804 6
  22523870.854   -11820106.059 7  -9210462.810 4
 91 11 20 17 18  0.0010000  0  5 17 16 20  3 23
  21262228.174    -4061529.129 8  -3164828.204 8
  24113591.100    12761318.511 6   9943868.579 2
  24247584.551    14543557.645 6  11332627.065 3
  20826141.369    -4424082.330 8  -3447338.872 6
  22511132.073   -11887055.308 7  -9262631.005 4
 91 11 20 17 18 30.0010000  0  5 17 16 20  3 23
  21260283.417    -4071770.910 8  -3172808.826 8
  24134444.075    12870891.259 6  10029250.087 3
  24269775.784    14660220.987 5  11423533.529 2
  20824673.875    -4431812.221 8  -3453362.176 6
  22498461.644   -11953648.158 7  -9314521.496 5
 91 11 20 17 19  0.0010000  0  5 17 16 20  3 23
  21258365.934    -4081830.811 8  -3180647.716 7
  24155311.133    12980560.435 6  10114706.378 3
  24291986.508    14776890.509 5  11514445.067 2
  20823269.953    -4439180.418 8  -3459103.642 7
  22485846.079   -12019925.180 7  -9366165.904 5
 91 11 20 17 19 30.0010000  0  5 17 16 20  3 23
  21256486.249    -4091684.729 8  -3188326.109 8
  24176208.466    13090335.122 6  10200245.273 2
  24314192.434    14893594.108 5  11605382.982 1
  20821942.463    -4446162.150 8  -3464543.971 7
  22473298.867   -12085853.424 7  -9417538.517 5
 91 11 20 17 20  0.0010000  0  5 17 16 20  3 23
  21254656.611    -4101321.131 8  -3195835.021 8
  24197113.286    13200211.435 6  10285863.424 3
  24336406.159    15010321.640 6  11696339.665 3
  20820686.344    -4452753.925 8  -3469680.435 6
  22460817.005   -12151435.669 7  -9468641.525 3
 91 11 20 17 20 30.0010000  0  5 17 16 20  3 23
  21252872.536    -4110691.069 8  -3203136.298 7
  24218047.196    13310232.292 6  10371594.200 2
  24358625.574    15127116.150 5  11787348.472 1
  20819517.144    -4458903.810 8  -3474472.576 6
  22448412.483   -12216644.710 7  -9519453.719 5
 91 11 20 17 21  0.0010000  0  5 17 16 20  3 23
  21251120.848    -4119883.840 8  -3210299.514 8
  24238996.095    13420326.446 6  10457382.094 3
  24380858.181    15243905.660 5  11878353.379 3
  20818422.911    -4464670.495 8  -3478966.113 6
  22436061.341   -12281557.934 7  -9570035.425 5
 91 11 20 17 21 30.0010000  0  5 17 16 20  3 23
  21249408.144    -4128912.165 8  -3217334.593 7
  24259958.483    13530490.243 6  10543223.826 2
  24403070.109    15360673.452 5  11969341.395 2
  20817395.512    -4470048.567 8  -3483156.847 7
  22423760.560   -12346177.496 7  -9620388.300 6
 91 11 20 17 22  0.0010000  0  5 17 16 20  3 23
  21247714.007    -4137799.662 8  -3224259.934 8
  24280936.454    13640712.022 6  10629111.097 1
  24425287.727    15477384.550 5  12060285.167 2
  20816444.876    -4475055.053 9  -3487058.040 7
  22411515.830   -12410532.106 7  -9670534.711 5
 91 11 20 17 22 30.0010000  0  5 17 16 20  3 23
  21246044.161    -4146561.071 8  -3231087.007 7
  24301920.428    13750984.648 6  10715037.607 2
  24447483.758    15594039.967 5  12151185.697 1
  20815563.780    -4479694.100 8  -3490672.917 7
  22399319.070   -12474618.007 7  -9720471.741 5
 91 11 20 17 23  0.0010000  0  5 17 16 20  3 23
  21244397.716    -4155240.832 8  -3237850.461 8
  24322902.308    13861256.461 6  10800963.478 1
  24469654.609    15710578.645 5  12241995.058 4
  20814737.564    -4484015.843 8  -3494040.534 7
  22387172.689   -12538463.782 7  -9770221.632 6
 91 11 20 17 23 30.0010000  0  5 17 16 20  3 23
  21242783.919    -4163708.789 9  -3244448.871 8
  24343908.165    13971650.479 6  10886984.584 3
  24491837.762    15827119.649 5  12332806.438 2
  20813995.564    -4487903.836 8  -3497070.171 7
  22375090.751   -12601942.571 7  -9819685.562 6
 91 11 20 17 24  0.0010000  0  5 17 16 20  3 23
  21241207.310    -4171984.620 8  -3250897.562 8
  24364936.812    14082143.500 6  10973082.829 1
  24514014.004    15943655.195 5  12423613.358 2
  20813336.626    -4491384.842 8  -3499782.673 7
  22363079.260   -12665072.278 7  -9868877.477 5
 91 11 20 17 24 30.0010000  0  5 17 16 20  3 23
  21239668.183    -4180094.844 8  -3257217.215 7
  24385977.743    14192697.618 6  11059228.717 2
  24536189.654    16060158.062 5  12514395.010 3
  20812746.931    -4494483.895 8  -3502197.546 7
  22351125.338   -12727874.848 7  -9917814.476 5
 91 11 20 17 25  0.0010000  0  5 17 16 20  3 23
  21238167.726    -4187989.357 8  -3263368.779 7
  24407039.964    14303353.093 6  11145453.512 3
  24558343.717    16176654.698 5  12605171.607 2
  20812237.280    -4497157.447 8  -3504280.860 7
  22339246.957   -12790310.645 7  -9966465.663 5
 91 11 20 17 25 30.0010000  0  5 17 16 20  3 23
  21236700.843    -4195681.430 8  -3269362.581 8
  24428109.078    14414090.243 6  11231742.018 1
  24580520.257    16293128.107 5  12695930.285 3
  20811809.784    -4499418.997 8  -3506043.139 6
  22327427.645   -12852399.145 7 -10014846.246 6
 91 11 20 17 26  0.0010000  0  5 17 16 20  3 23
  21235278.616    -4203176.808 9  -3275203.127 8
  24449193.478    14524904.190 6  11318090.743 1
  24602676.414    16409550.836 5  12786649.307 2
  20811454.236    -4501274.539 8  -3507489.050 6
  22315682.968   -12914148.596 7 -10062962.622 4
 91 11 20 17 26 30.0010000  0  5 17 16 20  3 23
  21233889.683    -4210461.519 8  -3280879.528 8
  24470299.761    14635800.960 6  11404503.574 2
  24624809.206    16525898.073 5  12877309.685 3
  20811179.622    -4502716.922 8  -3508613.015 6
  22303997.971   -12975556.574 7 -10110812.906 6
 91 11 20 17 27  0.0010000  0  5 17 16 20  3 23
  21232537.326    -4217555.981 8  -3286407.678 8
  24491418.642    14746776.006 5  11490977.859 2
  24646940.480    16642149.370 5  12967895.169
  20810980.550    -4503763.977 8  -3509428.928 6
  22292367.523   -13036653.043 7 -10158420.476 6
 91 11 20 17 27 30.0010000  0  5 17 16 20  3 23
  21231218.526    -4224484.731 8  -3291806.713 8
  24512547.715    14857813.366 6  11577500.221 2
  24669033.991    16758296.632 5  13058399.682 4
  20810856.147    -4504432.525 8  -3509949.909 6
  22280795.830   -13097465.760 7 -10205806.946 6
 91 11 20 17 28  0.0010000  0  5 17 16 20  3 23
  21229935.115    -4231223.335 8  -3297057.574 7
  24533686.682    14968937.615 5  11664090.770 1
  24691123.890    16874375.828 5  13148851.172 1
  20810807.583    -4504690.748 8  -3510151.162 6
  22269281.094   -13157970.537 7 -10252953.458 5
 91 11 20 17 28 30.0010000  0  5 17 16 20  3 23
  21228688.890    -4237784.207 8  -3302169.946 8
  24554851.423    15080124.680 6  11750730.214 1
  24713204.209    16990399.211 5  13239259.033 4
  20810834.561    -4504538.549 8  -3510032.616 7
  22257825.428   -13218171.219 7 -10299863.017 5
 91 11 20 17 29  0.0010000  0  5 17 16 20  3 23
  21227474.425    -4244164.486 8  -3307141.605 9
  24576014.384    15191365.400 5  11837411.450 2
  24735286.622    17106389.908 5  13329641.553 1
  20810940.990    -4503966.798 8  -3509587.147 7
  22246431.518   -13278065.992 7 -10346534.206 6
 91 11 20 17 29 30.0010000  0  5 17 16 20  3 23
  21226289.345    -4250371.910 8  -3311978.578 8
  24597192.020    15302621.116 6  11924104.467 3
  24757336.351    17222331.014 5  13419985.296 2
  20811128.057    -4502983.551 8  -3508821.032 6
  22235096.065   -13337641.284 7 -10392956.468 5
 91 11 20 17 30  0.0010000  0  5 17 16 20  3 23
  21225154.034    -4256371.396 8  -3316653.518 8
  24618369.360    15413916.311 5  12010828.109 1
  24779403.180    17338241.235 5  13510305.171 2
  20811402.967    -4501553.209 8  -3507706.510 6
  22223824.167   -13396849.176 7 -10439092.444 6
 91 11 20 17 30 30.0010000  0  5 17 16 20  3 23
  21224035.807    -4262218.478 8  -3321209.711 9
  24639543.105    15525207.695 5  12097548.870 2
  24801440.013    17454060.017 5  13600553.577 2
  20811751.326    -4499723.137 8  -3506280.519 6
  22212623.029   -13455737.258 7 -10484979.225 4
 91 11 20 17 31  0.0010000  0  5 17 16 20  3 23
  21222964.346    -4267852.655 8  -3325600.016 8
  24660733.638    15636568.844 5  12184324.018 2
  24823466.673    17569847.300 5  13690777.642 3
  20812186.918    -4497431.464 8  -3504494.847 6
  22201485.428   -13514236.679 7 -10530563.144 5
 91 11 20 17 31 30.0010000  0  5 17 16 20  3 23
  21221927.663    -4273320.081 8  -3329860.373 8
  24681937.345    15747979.045 5  12271137.276 2
  24845491.832    17685558.988 5  13780942.593 2
  20812702.572    -4494710.133 8  -3502374.369 7
  22190427.591   -13572369.409 7 -10575861.349 5
 91 11 20 17 32  0.0010000  0  5 17 16 20  3 23
  21220911.066    -4278651.641 8  -3334014.871 8
  24703150.667    15859429.550 5  12357981.982 3
  24867484.306    17801170.029 5  13871029.299 3
  20813299.754    -4491583.566 8  -3499938.140 7
  22179423.100   -13630181.784 7 -10620909.922 6
 91 11 20 17 32 30.0010000  0  5 17 16 20  3 23
  21219924.745    -4283846.743 8  -3338063.040 8
  24724364.286    15970920.729 5  12444857.969 2
  24889469.574    17916683.650 5  13961039.900 2
  20813974.589    -4488049.871 8  -3497184.680 6
  22168481.883   -13687675.961 7 -10665710.546 6
 91 11 20 17 33  0.0010000  0  5 17 16 20  3 23
  21218960.917    -4288902.846 8  -3342002.906 8
  24745573.996    16082446.925 5  12531761.581 2
  24911430.882    18032099.405 5  14050974.476 2
  20814720.463    -4484106.365 8  -3494111.865 6
  22157608.408   -13744839.715 7 -10710253.693 5
 91 11 20 17 33 30.0010000  0  5 17 16 20  3 23
  21218034.851    -4293778.172 8  -3345801.913 9
  24766816.984    16194022.845 5  12618704.067 4
  24933374.182    18147431.160 5  14140843.614 1
  20815554.793    -4479721.448 8  -3490695.080 6
  22146792.798   -13801652.274 7 -10754523.170 6
 91 11 20 17 34  0.0010000  0  5 17 16 20  3 23
  21217139.079    -4298479.275 8  -3349465.164 9
  24788059.989    16305617.754 5  12705661.307 2
  24955311.200    18262670.010 5  14230640.137 3
  20816473.652    -4474909.395 8  -3486945.470 6
  22136040.742   -13858129.917 7 -10798531.688 5
 91 11 20 17 34 30.0010000  0  5 17 16 20  3 23
  21216276.585    -4303000.359 8  -3352988.141 8
  24809295.177    16417230.201 5  12792632.137 2
  24977240.714    18377827.120 5  14320373.171 2
  20817474.055    -4469661.944 8  -3482856.578 6
  22125366.025   -13914256.996 7 -10842267.050 6
 91 11 20 17 35  0.0010000  0  5 17 16 20  3 23
  21215447.647    -4307371.870 8  -3356394.570 8
  24830538.182    16528832.023 5  12879594.793 2
  24999121.367    18492877.135 5  14410022.534 2
  20818549.722    -4464008.627 8  -3478451.431 6
  22114747.986   -13970061.367 7 -10885750.933 5
 91 11 20 17 35 30.0010000  0  5 17 16 20  3 23
  21214647.502    -4311555.991 8  -3359654.990 9
  24851779.965    16640462.265 5  12966579.575 2
  25021000.817    18607857.761 5  14499618.017 2
  20819712.918    -4457911.336 9  -3473700.339 6
  22104191.093   -14025511.729 7 -10928958.970 5
 91 11 20 17 36  0.0010000  0  5 17 16 20  3 23
  21213880.042    -4315576.521 8  -3362787.927 8
  24873027.769    16752138.016 5  13053599.729 2
  25042871.576    18722763.243 5  14589154.789 2
  20820952.861    -4451376.429 8  -3468608.250 6
  22093713.634   -14080606.853 7 -10971890.179 5
 91 11 20 17 36 30.0010000  0  5 17 16 20  3 23
  21213144.951    -4319463.929 8  -3365817.141 9
  24894285.450    16863837.222 5  13140638.278 2
  25064709.965    18837553.175 5  14678601.670 2
  20822274.331    -4444429.938 8  -3463195.435 6
  22083285.663   -14135377.332 7 -11014568.437 5
 91 11 20 17 37  0.0010000  0  5 17 16 20  3 23
  21212432.930    -4323198.132 8  -3368726.970 8
  24915540.723    16975575.429 5  13227707.066 2
  25086531.864    18952226.013 5  14767956.875 2
  20823678.271    -4437047.119 8  -3457442.613 6
  22072929.028   -14189804.676 7 -11056979.311 6
 91 11 20 17 37 30.0010000  0  5 17 16 20  3 23
  21211757.799    -4326773.892 8  -3371513.337 9
  24936813.707    17087347.377 5  13314802.294 2
  25108336.958    19066764.113 5  14857207.329 2
  20825168.240    -4429223.600 8  -3451346.405 6
  22062635.354   -14243900.381 7 -11099131.781 6
 91 11 20 17 38  0.0010000  0  5 17 16 20  3 23
  21211100.658    -4330211.723 9  -3374192.229 9
  24958081.579    17199100.749 6  13401883.057 2
  25130097.990    19181124.952 5  14946319.411 2
  20826736.456    -4420994.150 8  -3444933.870 6
  22052396.247   -14297707.770 7 -11141059.579 5
 91 11 20 17 38 30.0010000  0  5 17 16 20  3 23
  21210486.393    -4333434.985 8  -3376703.917 8
  24979355.157    17310869.284 5  13488975.512 3
  25151830.544    19295360.549 5  15035334.161 3
  20828384.717    -4412295.396 8  -3438155.659 7
  22042222.491   -14351179.929 7 -11182726.151 5
 91 11 20 17 39  0.0010000  0  5 17 16 20  3 23
  21209904.795    -4336492.184 8  -3379086.205 9
  25000608.335    17422578.252 6  13576021.639 2
  25173533.728    19409401.910 5  15124197.783 3
  20830123.212    -4403190.360 8  -3431060.857 7
  22032098.503   -14404381.573 7 -11224181.946 5
 91 11 20 17 39 30.0010000  0  5 17 16 20  3 23
  21209362.163    -4339348.058 8  -3381311.613 9
  25021857.623    17534255.896 5  13663042.950 2
  25195205.119    19523283.937 5  15212937.162 2
  20831936.045    -4393650.938 8  -3423627.559 6
  22022033.566   -14457272.870 7 -11265395.927 5
 91 11 20 17 40  0.0010000  0  5 17 16 20  3 23
  21208865.111    -4341967.267 8  -3383352.599 8
  25043112.319    17645941.841 5  13750071.007 2
  25216853.144    19637058.966 5  15301593.088 3
  20833843.633    -4383630.234 8  -3415819.234 5
  22012034.591   -14509794.565 7 -11306321.902 6
 91 11 20 17 40 30.0010000  0  5 17 16 20  3 23
  21208396.834    -4344432.832 8  -3385273.869 9
  25064355.010    17757585.719 5  13837066.426 2
  25238480.158    19750669.045 5  15390120.654 3
  20835833.953    -4373181.346 8  -3407677.256 6
  22002108.454   -14561985.219 7 -11346989.918 6
 91 11 20 17 41  0.0010000  0  5 17 16 20  3 23
  21207956.740    -4346734.743 8  -3387067.606 9
  25085604.001    17869228.212 5  13924060.759 2
  25260073.319    19864160.609 5  15478555.617 2
  20837909.412    -4362266.137 8  -3399171.918 7
  21992252.187   -14613780.209 7 -11387349.623 6
 91 11 20 17 41 30.0010000  0  5 17 16 20  3 23
  21207536.120    -4348927.573 8  -3388776.355 9
  25106845.488    17980840.043 5  14011031.122 2
  25281638.578    19977511.480 5  15566881.216 3
  20840067.917    -4350916.007 8  -3390327.692 6
  21982464.848   -14665212.683 7 -11427426.858 5
 91 11 20 17 42  0.0010000  0  4 17 16  3 23
  21207155.094    -4350948.163 9  -3390350.875 9
  25128087.289    18092487.382 5  14098029.253 2
  20842324.753    -4339060.593 8  -3381089.735 6
  21972758.479   -14716220.549 7 -11467173.249 6
 91 11 20 17 42 30.0010000  0  5 17 16 21  3 23
  21206785.150    -4352887.135 9  -3391861.801 9
  25149327.275    18204077.812 5  14184982.936 1
  25464193.298     -283342.608 4   -220786.243 2
  20844659.243    -4326803.024 8  -3371538.391 6
  21963109.363   -14766912.163 7 -11506673.213 6
 91 11 20 17 43  0.0010000  0  5 17 16 21  3 23
  21206446.075    -4354665.007 9  -3393247.195 8
  25170552.882    18315670.884 5  14271938.755 3
  25447178.585     -372688.591 4   -290406.586 2
  20847076.465    -4314088.315 8  -3361630.838 6
  21953533.993   -14817247.699 7 -11545895.712 6
 91 11 20 17 43 30.0010000  0  5 17 16 21  3 23
  21206149.281    -4356221.846 9  -3394460.356 8
  25191813.564    18427307.265 4  14358928.317 2
  25430187.256     -461924.780 3   -359941.303 2
  20849590.832    -4300888.182 8  -3351345.042 6
  21944020.064   -14867228.136 8 -11584841.510 6
 91 11 20 17 44  0.0010000  0  4 17 21  3 23
  21205907.648    -4357490.932 9  -3395449.291 9
  25413264.558     -550990.090 4   -429342.863 2
  20852203.828    -4287148.229 8  -3340638.601 6
  21934583.510   -14916807.252 8 -11623474.588 5
 91 11 20 17 44 30.0010000  0  4 17 21  3 23
  21205714.893    -4358520.998 9  -3396251.980 9
  25396332.577     -639902.692 4   -498625.427 1
  20854912.136    -4272909.637 8  -3329543.618 5
  21925220.090   -14966030.054 8 -11661830.018 5
 91 11 20 17 45  0.0010000  0  4 17 21  3 23
  21205551.803    -4359389.742 9  -3396928.955 8
  25379432.983     -728731.489 4   -567842.691 3
  20857704.119    -4258236.475 8  -3318109.982 6
  21915909.125   -15014957.708 8 -11699955.457 6
 91 11 20 17 45 30.0010000  0  4 17 21  3 23
  21205413.004    -4360106.924 9  -3397487.825 8
  25362535.187     -817467.339 4   -636987.547 2
  20860586.022    -4243113.092 8  -3306325.543 6
  21906662.638   -15063566.674 8 -11737832.571 5
 91 11 20 17 46  0.0010000  0  4 17 21  3 23
  21205317.063    -4360606.728 9  -3397877.312 8
  25345697.036     -906021.920 4   -705990.997 1
  20863565.054    -4227436.847 8  -3294110.321 6
  21897494.084   -15111734.089 8 -11775365.632 5
 91 11 20 17 46 30.0010000  0  4 17 21  3 23
  21205245.412    -4360983.802 8  -3398171.158 9
  25328854.696     -994499.530 4   -774934.516 1
  20866635.524    -4211297.943 8  -3281534.591 7
  21888398.682   -15159530.441 8 -11812609.546 6
 91 11 20 17 47  0.0010000  0  4 17 21  3 23
  21205191.160    -4361280.202 8  -3398402.139 8
  25312021.955    -1082976.493 4   -843877.570 2
  20869785.445    -4194749.658 8  -3268639.840 5
  21879366.536   -15207004.792 8 -11849602.551 6
 91 11 20 17 47 30.0010000  0  4 17 21  3 23
  21205154.881    -4361477.010 8  -3398555.510 8
  25295186.508    -1171448.394 4   -912816.683 1
  20873014.521    -4177775.648 8  -3255413.353 6
  21870394.647   -15254140.936 8 -11886332.017 6
 91 11 20 17 48  0.0010000  0  4 17 21  3 23
  21205144.376    -4361500.417 8  -3398573.778 8
  25278350.765    -1259869.932 4   -981716.616 1
  20876332.907    -4160329.178 8  -3241818.723 5
  21861497.095   -15300894.874 8 -11922763.657 6
 91 11 20 17 48 30.0010000  0  4 17 21  3 23
  21205181.859    -4361326.824 8  -3398438.509 9
  25261519.506    -1348219.683 4  -1050560.567 2
  20879747.845    -4142408.251 8  -3227854.394 6
  21852671.507   -15347276.111 8 -11958904.868 6
 91 11 20 17 49  0.0010000  0  4 17 21  3 23
  21205265.794    -4360874.779 8  -3398086.265 9
  25244773.998    -1436380.066 4  -1119257.088 2
  20883265.023    -4123912.938 8  -3213442.508 7
  21843934.061   -15393196.863 8 -11994687.257 6
 91 11 20 17 49 30.0010000  0  4 17 21  3 23
  21205385.712    -4360250.942 8  -3397600.135 8
  25228022.505    -1524416.583 4  -1187857.051 1
  20886875.421    -4104938.642 8  -3198657.376 6
  21835264.357   -15438757.388 8 -12030188.949 6
 91 11 20 17 50  0.0010000  0  4 17 21  3 23
  21205531.718    -4359466.373 8  -3396988.762 9
  25211282.389    -1612319.618 4  -1256353.060 2
  20890578.462    -4085488.588 8  -3183501.525 6
  21826660.614   -15483966.371 8 -12065416.720 6
 91 11 20 17 50 30.0010000  0  4 17 21  3 23
  21205710.688    -4358534.765 8  -3396262.797 9
  25194577.662    -1700072.330 5  -1324732.020 2
  20894369.033    -4065556.042 8  -3167969.717 5
  21818124.927   -15528823.933 8 -12100370.653 6
 91 11 20 17 51  0.0010000  0  4 17 21  3 23
  21205916.042    -4357462.101 8  -3395426.923 8
  25177914.292    -1787689.964 5  -1393005.292 2
  20898254.935    -4045147.758 8  -3152067.209 6
  21809655.185   -15573345.955 8 -12135063.124 6
 91 11 20 17 51 30.0010000  0  4 17 21  3 23
  21206151.986    -4356217.505 9  -3394457.056 8
  25161265.911    -1875191.138 5  -1461188.162 2
  20902231.089    -4024259.181 8  -3135790.443 6
  21801241.807   -15617532.689 8 -12169494.310 6
 91 11 20 17 52  0.0010000  0  4 17 21  3 23
  21206419.097    -4354797.851 8  -3393350.786 9
  25144628.036    -1962602.510 5  -1529300.807 2
  20906295.681    -4002890.070 8  -3119139.253 6
  21792897.392   -15661384.334 7 -12203664.387 6
 91 11 20 17 52 30.0010000  0  4 17 21  3 23
  21206726.395    -4353207.128 8  -3392111.222 9
  25128014.731    -2049934.243 5  -1597351.744 1
  20910454.085    -3981046.103 8  -3102118.053 6
  21784612.918   -15704906.780 8 -12237577.964 6
 91 11 20 17 53  0.0010000  0  4 17 21  3 23
  21207063.359    -4351435.460 8  -3390730.645 8
  25111399.646    -2137183.546 4  -1665338.061 2
  20914699.758    -3958712.759 8  -3084715.521 6
  21776399.206   -15748065.687 8 -12271208.254 6
 91 11 20 17 53 30.0010000  0  4 17 21  3 23
  21207432.099    -4349494.198 8  -3389217.941 8
  25094817.820    -2224337.314 4  -1733249.858 2
  20919050.045    -3935880.379 8  -3066924.111 5
  21768263.146   -15790833.914 8 -12304534.123 6
 91 11 20 17 54  0.0010000  0  4 17 21  3 23
  21207831.430    -4347402.429 9  -3387587.975 9
  25078254.283    -2311375.115 4  -1801071.341 2
  20923484.582    -3912549.217 8  -3048744.042 6
  21760198.720   -15833213.972 8 -12337557.509 6
 91 11 20 17 54 30.0010000  0  4 17 21  3 23
  21208255.034    -4345181.167 9  -3385857.088 7
  25061702.752    -2398306.991 4  -1868810.736 2
  20928015.339    -3888741.756 8  -3030192.830 5
  21752206.852   -15875224.367 8 -12370292.841 6
 91 11 20 17 55  0.0010000  0  4 17 21  3 23
  21208706.820    -4342807.494 8  -3384007.459 8
  25045190.483    -2485118.059 4  -1936455.518 2
  20932641.426    -3864436.568 8  -3011253.784 6
  21744288.449   -15916844.077 8 -12402723.758 7
 91 11 20 17 55 30.0010000  0  4 17 21  3 23
  21209188.586    -4340258.211 9  -3382021.012 9
  25028689.592    -2571799.172 5  -2003998.982 1
  20937365.567    -3839626.972 8  -2991921.694 6
  21736438.085   -15958085.054 8 -12434859.559 7
 91 11 20 17 56  0.0010000  0  4 17 21  3 23
  21209712.022    -4337508.834 9  -3379878.651 8
  25012228.592    -2658344.760 5  -2071437.004 2
  20942184.427    -3814309.420 8  -2972193.787 7
  21728658.760   -15998958.061 8 -12466708.629 6
 91 11 20 17 56 30.0010000  0  4 17 21  3 23
  21210275.036    -4334559.816 9  -3377580.730 8
  24995779.878    -2744766.436 5  -2138778.741 1
  20947094.726    -3788488.650 8  -2952073.779 6
  21720951.104   -16039459.619 8 -12498268.248 5
 91 11 20 17 57  0.0010000  0  4 17 21  3 23
  21210872.811    -4331414.178 9  -3375129.600 8
  24979359.345    -2831070.327 5  -2206028.722 2
  20952101.264    -3762169.909 8  -2931565.733 6
  21713310.282   -16079608.540 8 -12529553.094 6
 91 11 20 17 57 30.0010000  0  4 17 21  3 23
  21211510.477    -4328067.841 9  -3372522.087 9
  24962964.603    -2917237.993 5  -2273172.261 2
  20957207.930    -3735350.978 8  -2910667.925 5
  21705737.533   -16119407.229 8 -12560565.032 6
 91 11 20 17 58  0.0010000  0  4 17 21  3 23
  21212179.920    -4324533.683 8  -3369768.227 9
  24946589.930    -3003260.188 5  -2340202.739 1
  20962408.130    -3708026.073 8  -2889375.832 6
  21698233.433   -16158843.261 8 -12591294.390 6
 91 11 20 17 58 30.0010000  0  4 17 21  3 23
  21212888.032    -4320813.807 9  -3366869.663 8
  24930263.838    -3089137.832 5  -2407120.212 2
  20967706.051    -3680186.803 8  -2867682.951 6
  21690800.967   -16197904.167 8 -12621731.447 7
 91 11 20 17 59  0.0010000  0  4 17 21  3 23
  21213633.313    -4316900.903 9  -3363820.696 9
  24913937.431    -3174858.861 4  -2473915.577 2
  20973100.821    -3651830.400 8  -2845587.106 6
  21683441.372   -16236591.420 8 -12651877.326 6
 91 11 20 17 59 30.0010000  0  4 17 21  3 23
  21214411.261    -4312811.848 8  -3360634.469 8
  24897653.010    -3260424.724 4  -2540590.070 1
  20978595.126    -3622960.154 8  -2823090.870 6
  21676150.113   -16274896.002 8 -12681725.031 6
 91 11 20 18  0  0.0010000  0  4 17 21  3 23
  21215227.007    -4308551.242 9  -3357314.562 8
  24881401.867    -3345846.320 4  -2607152.146 1
  20984184.152    -3593574.086 8  -2800192.698 6
  21668936.804   -16312814.222 8 -12711271.667 6
 91 11 20 18  0 30.0020000  0  4 17 21  3 23
  21216070.920    -4304109.270 9  -3353853.329 8
  24865171.702    -3431120.796 5  -2673599.615 1
  20989881.704    -3563665.671 8  -2776887.512 6
  21661795.759   -16350347.453 8 -12740518.328 6
 91 11 20 18  1  0.0020000  0  4 17 21  3 23
  21216944.809    -4299508.275 9  -3350268.188 8
  24848979.610    -3516257.395 5  -2739940.033 2
  20995665.299    -3533251.829 8  -2753188.466 6
  21654720.655   -16387506.720 8 -12769473.597 7
 91 11 20 18  1 30.0020000  0  4 17 21  3 23
  21217850.790    -4294754.352 9  -3346563.882 8
  24832799.506    -3601271.985 5  -2806184.997 2
  21001551.135    -3502323.992 8  -2729088.884 6
  21647721.094   -16424282.783 8 -12798130.254 6
 91 11 20 18  2  0.0020000  0  4 17 21  3 23
  21218782.248    -4289845.260 9  -3342738.664 8
  24816639.802    -3686172.315 5  -2872341.373 3
  21007537.084    -3470883.630 8  -2704589.953 6
  21640794.090   -16460687.637 8 -12826497.636 6
 91 11 20 18  2 30.0020000  0  4 17 21  3 23
  21219751.764    -4284763.825 9  -3338779.148 9
  24800504.667    -3770954.479 5  -2938405.136 2
  21013615.675    -3438924.909 8  -2679687.078 6
  21633943.240   -16496718.591 8 -12854573.689 6
 91 11 20 18  3  0.0020000  0  4 17 21  3 23
  21220750.684    -4279498.597 9  -3334676.421 9
  24784396.511    -3855610.572 5  -3004371.179 2
  21019798.305    -3406439.308 8  -2654373.656 6
  21627151.126   -16532373.735 8 -12882356.905 7
 91 11 20 18  3 30.0020000  0  4 17 21  3 23
  21221790.665    -4274034.611 9  -3330418.801 9
  24768312.960    -3940123.326 5  -3070225.478 3
  21026080.156    -3373423.362 8  -2628646.996 6
  21620441.483   -16567655.836 8 -12909849.426 7
 91 11 20 18  4  0.0020000  0  4 17 21  3 23
  21222872.020    -4268361.546 9  -3325998.245 8
  24752261.761    -4024481.368 5  -3135959.233 2
  21032463.027    -3339880.961 8  -2602510.093 6
  21613798.377   -16602566.579 8 -12937052.585 7
 91 11 20 18  4 30.0020000  0  4 17 21  3 23
  21223989.340    -4262477.174 9  -3321413.044 9
  24736241.763    -4108676.318 5  -3201565.914 2
  21038945.748    -3305811.220 8  -2575962.274 6
  21607222.437   -16637093.317 8 -12963956.500 6
 91 11 20 18  5  0.0020000  0  4 17 21  3 23
  21225148.035    -4256391.428 9  -3316670.922 9
  24720251.430    -4192700.341 5  -3267039.302 2
  21045532.176    -3271214.238 8  -2549003.609 6
  21600732.823   -16671224.572 8 -12990552.250 7
 91 11 20 18  5 30.0020000  0  4 17 21  3 23
  21226344.805    -4250106.755 9  -3311773.788 9
  24704294.375    -4276559.443 5  -3332384.238 2
  21052214.562    -3236092.984 8  -2521636.424 5
  21594312.172   -16704949.433 8 -13016831.333 7
 91 11 20 18  6  0.0020000  0  4 17 21  3 23
  21227579.653    -4243631.752 9  -3306728.331 8
  24688361.000    -4360256.081 5  -3397602.531 2
  21058994.059    -3200448.787 8  -2493861.750 6
  21587971.566   -16738274.165 8 -13042798.642 7
 91 11 20 18  6 30.0020000  0  4 17 21  3 23
  21228845.369    -4236978.294 8  -3301543.811 9
  24672458.215    -4443791.889 5  -3462695.553 2
  21065879.391    -3164283.592 8  -2465681.106 5
  21581705.001   -16771214.648 8 -13068466.529 7
 91 11 20 18  7  0.0020000  0  4 17 21  3 23
  21230141.973    -4230144.651 8  -3296218.903 9
  24656589.895    -4527169.653 5  -3527665.409 2
  21072863.056    -3127594.389 7  -2437092.120 6
  21575507.695   -16803774.021 8 -13093837.430 6
 91 11 20 18  7 30.0020000  0  4 17 21  3 23
  21231473.948    -4223144.147 9  -3290763.959 9
  24640757.853    -4610397.704 5  -3592518.524 2
  21079940.253    -3090387.471 7  -2408099.735 6
  21569381.133   -16835974.671 8 -13118928.810 6
 91 11 20 18  8  0.0020000  0  4 17 21  3 23
  21232841.609    -4215991.408 9  -3285190.381 8
  24624951.306    -4693479.331 6  -3657257.621 3
  21087117.301    -3052665.185 7  -2378705.752 6
  21563319.922   -16867827.944 8 -13143749.509 7
 91 11 20 18  8 30.0020000  0  4 17 21  3 23
  21234229.651    -4208678.447 9  -3279491.958 9
  24609169.923    -4776423.201 5  -3721889.353 2
  21094395.961    -3014421.271 8  -2348905.309 5
  21557325.581   -16899316.188 8 -13168285.778 7
 91 11 20 18  9  0.0020000  0  4 17 21  3 23
  21235650.972    -4201205.651 9  -3273669.002 9
  24593415.238    -4859219.525 5  -3786405.731
  21101774.140    -2975652.351 8  -2318695.760 5
  21551408.578   -16930425.406 8 -13192526.694 6
 91 11 20 18  9 30.0020000  0  4 17 21  3 23
  21237104.365    -4193579.618 9  -3267726.632 9
  24577683.919    -4941867.076 5  -3850806.636 2
  21109252.169    -2936360.257 8  -2288078.554 6
  21545555.723   -16961165.246 8 -13216479.769 6
 91 11 20 18 10  0.0020000  0  4 17 21  3 23
  21238582.940    -4185794.845 9  -3261660.592 9
  24561991.584    -5024362.109 5  -3915088.643 2
  21116826.122    -2896543.916 8  -2257052.859 6
  21539778.427   -16991530.560 8 -13240141.014 7
 91 11 20 18 10 30.0020000  0  4 17 21  3 23
  21240094.495    -4177845.744 9  -3255466.483 9
  24546318.741    -5106701.809 5  -3979249.259 3
  21124506.801    -2856203.925 8  -2225619.129 6
  21534068.279   -17021525.646 8 -13263513.760 7
 91 11 20 18 11  0.0020000  0  4 17 21  3 23
  21241641.422    -4169730.920 9  -3249143.257 9
  24530677.657    -5188882.242 5  -4043286.149 2
  21132280.419    -2815341.482 8  -2193778.276 6
  21528429.172   -17051166.295 8 -13286610.318 6
 91 11 20 18 11 30.0020000  0  4 17 21  3 23
  21243215.920    -4161445.350 9  -3242686.999 9
  24515070.461    -5270919.799 5  -4107211.279 2
  21140155.371    -2773960.935 8  -2161533.718 5
  21522855.729   -17080471.072 8 -13309445.129 7
 91 11 20 18 12  0.0020000  0  4 17 21  3 23
  21244827.605    -4152969.680 9  -3236082.604 9
  24499482.758    -5352813.509 5  -4171024.383 3
  21148127.764    -2732059.629 8  -2128883.360 6
  21517340.762   -17109429.474 8 -13332010.058 7
 91 11 20 18 12 30.0020000  0  4 17 21  3 23
  21246483.665    -4144289.422 9  -3229318.809 9
  24483927.127    -5434564.192 5  -4234726.444 3
  21156198.769    -2689636.104 8  -2095826.099 6
  21511899.820   -17138026.949 8 -13354293.759 7
 91 11 20 18 13  0.0020000  0  4 17 21  3 23
  21248175.098    -4135399.880 9  -3222391.926 8
  24468401.180    -5516171.035 5  -4298316.024 3
  21164374.109    -2646688.585 8  -2062360.506 5
  21506530.841   -17166250.346 8 -13376285.944 7
 91 11 20 18 13 30.0020000  0  4 17 21  3 23
  21249902.495    -4126302.475 8  -3215303.086 8
  24452893.207    -5597630.376 5  -4361791.067 1
  21172646.873    -2603218.072 8  -2028487.397 6
  21501233.810   -17194083.476 8 -13397974.032 6
 91 11 20 18 14  0.0020000  0  4 17 21  3 23
  21251671.580    -4117013.420 8  -3208064.927 9
  24437429.626    -5678936.378 5  -4425146.281 2
  21181019.191    -2559228.998 8  -1994210.227 5
  21496016.213   -17221507.953 8 -13419343.704 7
 91 11 20 18 14 30.0020000  0  4 17 21  3 23
  21253475.427    -4107554.326 9  -3200694.266 9
  24421981.315    -5760082.750 5  -4488377.428 2
  21189484.728    -2514718.694 8  -1959526.888 6
  21490873.878   -17248526.126 8 -13440396.768 7
 91 11 20 18 15  0.0020000  0  4 17 21  3 23
  21255303.861    -4097939.446 8  -3193202.214 9
  24406578.584    -5841060.399 6  -4551476.718 2
  21198051.302    -2469686.973 8  -1924437.267 6
  21485806.491   -17275156.549 8 -13461147.671 6
 91 11 20 18 15 30.0020000  0  4 17 21  3 23
  21257153.584    -4088177.389 8  -3185595.480 9
  24391204.314    -5921855.962 6  -4614434.094 1
  21206721.599    -2424130.660 8  -1888938.852 6
  21480811.349   -17301402.746 8 -13481599.198 7
 91 11 20 18 16  0.0020000  0  4 17 21  3 23
  21259044.978    -4078257.251 9  -3177865.577 9
  24375857.039    -6002455.708 5  -4677238.965 4
  21215497.715    -2378038.541 8  -1853022.936 6
  21475888.154   -17327272.134 8 -13501757.121 8
 91 11 20 18 16 30.0020000  0  4 17 21  3 23
  21260967.241    -4068165.754 9  -3170002.146 9
  24360556.531    -6082869.666 5  -4739898.990 2
  21224369.772    -2331411.775 8  -1816690.411 6
  21471033.015   -17352792.907 8 -13521643.389 7
 91 11 20 18 17  0.0020000  0  4 17 21  3 23
  21262925.487    -4057889.801 9  -3161994.977 8
  24345292.599    -6163102.089 6  -4802417.621 3
  21233343.163    -2284250.050 8  -1779941.032 5
  21466241.133   -17377969.585 8 -13541261.517 7
 91 11 20 18 17 30.0020000  0  4 17 21  3 23
  21264915.807    -4047418.405 8  -3153835.519 9
  24330052.660    -6243163.093 5  -4864802.730 1
  21242423.872    -2236550.579 8  -1742772.612 6
  21461516.399   -17402797.999 8 -13560608.279 7
 91 11 20 18 18  0.0020000  0  4 17 21  3 23
  21266945.704    -4036745.593 8  -3145519.097 8
  24314855.877    -6323065.891 6  -4927064.486 3
  21251597.818    -2188320.388 8  -1705190.673 5
  21456853.736   -17427293.447 8 -13579695.604 8
 91 11 20 18 18 30.0020000  0  4 17 21  3 23
  21269014.270    -4025875.697 8  -3137049.103 9
  24299678.585    -6402814.818 6  -4989206.432 2
  21260875.506    -2139564.219 8  -1667198.876 5
  21452257.907   -17451446.447 8 -13598516.092 7
 91 11 20 18 19  0.0020000  0  4 17 21  3 23
  21271121.209    -4014817.111 8  -3128432.083 9
  24284532.773    -6482390.869 6  -5051213.670 1
  21270255.417    -2090282.833 8  -1628797.820 6
  21447731.338   -17475235.409 8 -13617052.902 7
 91 11 20 18 19 30.0020000  0  4 17 21  3 23
  21273263.834    -4003562.731 9  -3119662.483 9
  24269424.130    -6561780.760 6  -5113075.821 2
  21279736.050    -2040469.364 8  -1589982.152 5
  21443277.624   -17498646.771 8 -13635295.488 7
 91 11 20 18 20  0.0020000  0  4 17 21  3 23
  21275443.611    -3992107.110 9  -3110736.058 9
  24254357.455    -6640975.512 5  -5174785.921 3
  21289314.108    -1990122.676 8  -1550751.005 6
  21438896.467   -17521664.263 8 -13653231.178 8
 91 11 20 18 20 30.0020000  0  4 17 21  3 23
  21277659.090    -3980456.616 9  -3101657.791 9
  24239318.962    -6719975.811 5  -5236344.555 4
  21298997.112    -1939241.621 8  -1511103.459 5
  21434590.539   -17544274.801 8 -13670849.777 7
 91 11 20 18 21  0.0020000  0  4 17 21  3 23
  21279914.426    -3968608.602 9  -3092425.601 8
  24224317.952    -6798791.452 5  -5297759.270 2
  21308780.245    -1887828.685 8  -1471041.473 5
  21430368.563   -17566486.541 8 -13688157.616 7
 91 11 20 18 21 30.0020000  0  4 17 21  3 23
  21282204.837    -3956566.720 9  -3083042.337 8
  24209350.220    -6877445.700 5  -5359048.191 3
  21318664.694    -1835887.985 8  -1430568.245 5
  21426213.143   -17588311.285 8 -13705163.895 6
 91 11 20 18 22  0.0020000  0  4 17 21  3 23
  21284538.123    -3944335.479 9  -3073511.523 9
  24194413.654    -6955930.727 5  -5420205.301 4
  21328648.085    -1783416.618 8  -1389681.526 6
  21422132.375   -17609751.896 8 -13721870.859 7
 91 11 20 18 22 30.0020000  0  4 17 21  3 23
  21286894.496    -3931923.362 8  -3063839.763 9
  24179506.177    -7034240.995 5  -5481226.234 1
  21338736.109    -1730408.678 8  -1348376.678 5
  21418125.037   -17630820.786 8 -13738288.166 7
 91 11 20 18 23  0.0020000  0  4 17 21  3 23
  21289287.130    -3919333.576 8  -3054029.551 9
  24164645.763    -7112378.487 6  -5542112.524 2
  21348925.448    -1676869.674 8  -1306658.044 4
  21414186.069   -17651530.025 8 -13754425.239 8
 91 11 20 18 23 30.0020000  0  4 17 21  3 23
  21291717.858    -3906579.303 8  -3044091.170 8
  24149815.626    -7190340.568 6  -5602862.076 2
  21359213.416    -1622801.623 8  -1264527.164 5
  21410312.452   -17671885.569 8 -13770286.710 8
 91 11 20 18 24  0.0020000  0  4 17 21  3 23
  21294177.048    -3893658.403 9  -3034022.925 8
  24135010.373    -7268120.717 6  -5663469.893 3
  21369600.030    -1568204.037 8  -1221983.660 5
  21406502.389   -17691888.522 8 -13785873.424 7
 91 11 20 18 24 30.0020000  0  4 17 21  3 23
  21296668.921    -3880562.914 8  -3023818.659 9
  24120235.116    -7345722.899 6  -5723939.042 2
  21380091.275    -1513070.605 8  -1179022.616 6
  21402767.868   -17711520.983 8 -13801171.440 6
 91 11 20 18 25  0.0020000  0  4 17 21  3 23
  21299197.667    -3867280.559 9  -3013468.781 8
  24105514.706    -7423138.769 6  -5784262.949 2
  21390697.325    -1457394.274 8  -1135638.553 5
  21399105.905   -17730768.815 8 -13816169.760 7
 91 11 20 18 25 30.0020000  0  4 17 21  3 23
  21301757.300    -3853822.593 8  -3002982.067 8
  24090821.570    -7500364.840 6  -5844438.996 2
  21401385.235    -1401177.107 8  -1091833.040 5
  21395514.685   -17749631.579 8 -13830868.037 8
 91 11 20 18 26  0.0020000  0  4 17 21  3 23
  21304349.006    -3840194.164 8  -2992362.523 9
  24076158.414    -7577399.792 6  -5904466.116 2
  21412184.651    -1344429.525 8  -1047614.234 5
  21391998.134   -17768116.267 8 -13845271.716 7
 91 11 20 18 26 30.0020000  0  4 17 21  3 23
  21306975.788    -3826395.616 8  -2981610.429 8
  24061534.242    -7654239.650 6  -5964341.157 3
  21423087.198    -1287155.556 8  -1002985.246 5
  21388550.216   -17786235.083 8 -13859390.293 8
 91 11 20 18 27  0.0020000  0  4 17 21  3 23
  21309634.346    -3812423.907 8  -2970723.411 9
  24046942.143    -7730867.801 6  -6024051.269 3
  21434081.498    -1229355.969 8   -957946.712 5
  21385169.760   -17804006.062 8 -13873237.841 8
 91 11 20 18 27 30.0020000  0  4 17 21  3 23
  21312328.590    -3798269.451 8  -2959693.993 9
  24032416.896    -7807284.293 6  -6083596.396 2
  21445183.414    -1171029.527 8   -912497.616 4
  21381853.154   -17821422.932 8 -13886809.451 8
 91 11 20 18 28  0.0020000  0  4 17 21  3 23
  21315057.001    -3783919.623 8  -2948512.344 9
  24017918.347    -7883493.374 6  -6142979.938 3
  21456382.754    -1112177.673 8   -866639.124 5
  21378606.994   -17838491.613 8 -13900109.732 7
 91 11 20 18 28 30.0020000  0  4 17 21  3 23
  21317825.583    -3769362.225 9  -2937168.962 9
  24003447.667    -7959495.748 6  -6202202.346 2
  21467684.039    -1052792.327 8   -820364.912 5
  21375427.408   -17855201.063 8 -13913130.102 7
 91 11 20 18 29  0.0020000  0  4 17 21  3 23
  21320640.634    -3754581.462 9  -2925651.521 8
  23989027.034    -8035285.829 6  -6261259.403 3
  21479087.233     -992858.515 7   -773663.326 5
  21372319.454   -17871523.497 8 -13925848.902 7
 91 11 20 18 29 30.0020000  0  4 17 21  3 23
  21323495.856    -3739567.112 9  -2913952.077 9
  23974637.898    -8110884.821 6  -6320167.502 3
  21490599.560     -932377.519 8   -726535.370 5
  21369293.953   -17887449.570 8 -13938258.847 7
 91 11 20 18 30  0.0020000  0  4 17 21  3 23
  21326398.735    -3724318.814 9  -2902070.346 9
  23960287.136    -8186288.775 6  -6378923.676 4
  21502211.424     -871354.736 8   -678985.230 5
  21366334.099   -17902989.467 8 -13950367.877 7
 91 11 20 18 30 30.0020000  0  4 17 21  3 23
  21329344.210    -3708834.014 8  -2890004.331 8
  23945969.651    -8261503.969 6  -6437532.755 2
  21513927.011     -809791.368 8   -631013.871 5
  21363450.695   -17918144.569 8 -13962177.061 8
 91 11 20 18 31  0.0020000  0  4 17 21  3 23
  21332338.231    -3693122.100 8  -2877761.351 9
  23931701.620    -8336528.220 6  -6495993.031 4
  21525743.932     -747687.870 8   -582621.627 5
  21360638.331   -17932921.027 8 -13973691.202 8
 91 11 20 18 31 30.0020000  0  4 17 21  3 23
  21335370.328    -3677194.565 9  -2865350.340 9
  23917462.382    -8411354.378 6  -6554298.980 2
  21537662.780     -685046.211 8   -533810.035 5
  21357897.041   -17947317.002 8 -13984908.851 7
 91 11 20 18 32  0.0020000  0  4 17 21  3 23
  21338435.703    -3661072.792 8  -2852787.983 9
  23903263.611    -8485970.915 6  -6612441.521 4
  21549683.258     -621870.979 8   -484582.682 4
  21355229.775   -17961336.697 8 -13995833.287 7
 91 11 20 18 32 30.0020000  0  4 17 21  3 23
  21341537.968    -3644771.983 8  -2840086.120 8
  23889097.524    -8560392.525 6  -6670432.269 2
  21561805.976     -558165.537 8   -434942.183 5
  21352633.584   -17974984.357 8 -14006467.822 7
 91 11 20 18 33  0.0020000  0  4 17 21  3 23
  21344673.196    -3628299.966 9  -2827250.842 8
  23874971.294    -8634609.755 6  -6728263.706 2
  21574030.308     -493930.761 8   -384889.195 4
  21350106.932   -17988258.261 8 -14016811.128 7
 91 11 20 18 33 30.0020000  0  4 17 21  3 23
  21347840.201    -3611638.043 8  -2814267.586 9
  23860891.847    -8708626.732 6  -6785939.155 2
  21586355.379     -429167.742 8   -334424.604 4
  21347649.523   -18001172.250 8 -14026873.978 8
 91 11 20 18 34  0.0020000  0  4 17 21  3 23
  21351053.066    -3594765.657 8  -2801120.343 8
  23846839.082    -8782445.123 6  -6843459.802 2
  21598781.173     -363876.076 8   -283548.080 4
  21345258.686   -18013742.385 8 -14036668.896 8
 91 11 20 18 34 30.0020000  0  4 17 21  3 23
  21354305.821    -3577670.021 8  -2787799.134 9
  23832840.867    -8856062.746 6  -6900824.046 4
  21611307.707     -298050.312 8   -232255.360 4
  21342928.698   -18025975.205 8 -14046200.970 7
 91 11 20 18 35  0.0020000  0  4 17 21  3 23
  21357602.342    -3560350.127 8  -2774303.187 8
  23818854.953    -8929469.745 6  -6958024.201 4
  21623932.259     -231691.277 7   -180547.115 5
  21340667.063   -18037876.105 8 -14055474.401 7
 91 11 20 18 35 30.0020000  0  4 17 21  3 23
  21360939.923    -3542806.837 8  -2760633.144 9
  23804933.484    -9002660.166 6  -7015055.511 3
  21636665.945     -164799.572 7   -128423.813 3
  21338468.387   -18049441.118 8 -14064486.104 7
 91 11 20 18 36  0.0020000  0  4 17 21  3 23
  21364319.192    -3525063.178 9  -2746806.976 8
  23791051.905    -9075632.861 6  -7071917.248 4
  21649491.366      -97382.321 7    -75890.994 4
  21336332.062   -18060655.519 8 -14073224.602 7
 91 11 20 18 36 30.0020000  0  4 17 21  3 23
  21367729.628    -3507140.976 8  -2732841.692 9
  23777205.088    -9148390.086 6  -7128611.065 2
  21662417.214      -29443.271 7    -22951.574 4
  21334264.996   -18071511.069 8 -14081683.486 7
 91 11 20 18 37  0.0020000  0  4 17 21  3 23
  21371171.247    -3489037.353 8  -2718735.028 8
  23763404.444    -9220916.653 6  -7185125.112 2
  21675451.898       39027.679 7     30402.348 3
  21332273.176   -18081983.475 8 -14089843.824 8
 91 11 20 18 37 30.0020000  0  4 17 21  3 23
  21374656.038    -3470740.860 8  -2704478.084 8
  23749640.061    -9293225.519 6  -7241469.586 2
  21688582.506      108026.098 8     84167.260 4
  21330352.710   -18092063.087 8 -14097698.095 9
 91 11 20 18 38  0.0020000  0  4 17 21  3 23
  21378173.496    -3452249.824 8  -2690069.545 9
  23735922.462    -9365325.407 6  -7297651.123 2
  21701813.541      177556.850 8    138346.956 3
  21328508.676   -18101752.976 8 -14105248.673 7
 91 11 20 18 38 30.0020000  0  4 17 21  3 23
  21381728.437    -3433565.295 8  -2675510.250 8
  23722237.234    -9437226.791 6  -7353678.086 3
  21715142.017      247611.844 8    192935.151 4
  21326738.403   -18111066.591 8 -14112506.049 7
 91 11 20 18 39  0.0020000  0  4 17 21  3 23
  21385321.158    -3414674.428 8  -2660790.164 7
  23708586.190    -9508925.800 6  -7409547.330 3
  21728575.421      318187.271 7    247928.899 5
  21325037.077   -18120007.794 8 -14119473.251 7
 91 11 20 18 39 30.0020000  0  4 17 21  3 23
  21388960.034    -3395569.944 9  -2645903.636 8
  23694992.994    -9580424.382 6  -7465260.326 3
  21742105.657      389284.944 7    303329.580 5
  21323402.323   -18128583.380 8 -14126155.556 7
 91 11 20 18 40  0.0020000  0  4 17 21  3 23
  21392633.985    -3376268.674 9  -2630863.729 8
  23681426.793    -9651710.237 6  -7520807.623 1
  21755729.426      460904.141 7    359136.636 4
  21321841.297   -18136802.358 8 -14132559.980 8
 91 11 20 18 40 30.0020000  0  4 17 21  3 23
  21396345.717    -3356769.551 8  -2615669.674 8
  23667904.044    -9722773.136 6  -7576181.145 2
  21769457.216      533038.033 7    415344.765 5
  21320343.527   -18144670.612 8 -14138691.123 7
 91 11 20 18 41  0.0020000  0  4 17 21  3 23
  21400094.617    -3337071.294 8  -2600320.451 9
  23654423.279    -9793613.362 6  -7631381.203 2
  21783283.041      605687.993 7    471955.008 5
  21318915.628   -18152192.625 8 -14144552.472 9
 91 11 20 18 41 30.0020000  0  4 17 21  3 23
  21403874.404    -3317178.456 8  -2584819.601 8
  23640974.885    -9864241.572 6  -7686416.076 2
  21797207.808      678852.266 7    528966.021 5
  21317543.779   -18159374.390 8 -14150148.694 8
 91 11 20 18 42  0.0020000  0  4 17 21  3 23
  21407698.252    -3297090.732 8  -2569166.884 8
  23627585.263    -9934653.712 6  -7741282.499 3
  21811227.296      752524.687 8    586372.971 4
  21316241.469   -18166220.217 8 -14155483.151 9
 91 11 20 18 42 30.0020000  0  4 17 21  3 23
  21411566.477    -3276778.697 8  -2553339.374 8
  23614223.213   -10004827.951 6  -7795963.637 4
  21825345.133      826729.058 8    644194.449 4
  21315008.123   -18172707.104 8 -14160537.916 8
 91 11 20 18 43  0.0020000  0  4 17 21  3 23
  21415480.578    -3256202.706 8  -2537306.188 7
  23600922.325   -10074728.479 6  -7850431.505 3
  21839576.571      901499.396 7    702456.938 4
  21313848.835   -18178798.990 8 -14165284.891 7
 91 11 20 18 43 30.0020000  0  4 17 21  3 23
  21419450.730    -3235363.254 8  -2521067.698 8
  23587676.894   -10144358.818 6  -7904688.775 3
  21853907.248      976829.909 7    761155.939 5
  21312765.386   -18184498.317 8 -14169725.972 7
 91 11 20 18 44  0.0020000  0  4 17 21  3 23
  21423433.463    -3214410.836 8  -2504741.168 8
  23574452.439   -10213858.252 6  -7958844.109 3
  21868320.971     1052570.781 7    820174.683 4
  21311725.999   -18189954.678 8 -14173977.722 7
 91 11 20 18 44 30.0020000  0  4 17 21  3 23
  21427426.997    -3193431.834 8  -2488393.937 8
  23561230.391   -10283328.243 6  -8012976.527 3
  21882798.247     1128631.179 7    879442.400 4
  21310716.294   -18195260.373 8 -14178112.071 8
 91 11 20 18 45  0.0020000  0  4 17 21  3 23
  21431438.227    -3172348.664 8  -2471965.524 7
  23548026.039   -10352702.516 6  -8067034.353 3
  21897345.080     1205078.508 7    939011.628 4
  21309750.372   -18200348.973 8 -14182077.256 7
 91 11 20 18 45 30.0020000  0  4 17 21  3 23
  21435484.827    -3151096.799 8  -2455405.646 7
  23534854.667   -10421918.387 6  -8120968.715 2
  21911974.959     1281985.407 7    998938.961 4
  21308831.810   -18205150.737 8 -14185818.938 9
 91 11 20 18 46  0.0020000  0  4 17 21  3 23
  21439567.690    -3129624.829 8  -2438674.257 8
  23521731.841   -10490908.785 6  -8174727.444 3
  21926710.952     1359399.386 7   1059261.394 4
  21307985.789   -18209613.692 8 -14189296.598 8
 91 11 20 18 46 30.0020000  0  4 17 21  3 23
  21443697.039    -3107913.191 8  -2421756.123 8
  23508647.703   -10559662.420 6  -8228301.676 2
  21941540.496     1437332.689 7   1119988.513 3
  21307204.228   -18213717.280 8 -14192494.233 8
 91 11 20 18 47  0.0020000  0  4 17 21  3 23
  21447877.047    -3085969.924 8  -2404657.502 8
  23495609.424   -10628178.026 7  -8281690.444 3
  21956467.761     1515785.922 7   1181120.783 3
  21306497.023   -18217447.072 8 -14195400.599 9
 91 11 20 18 47 30.0020000  0  4 17 21  3 23
  21452096.318    -3063796.793 8  -2387379.744 7
  23482617.614   -10696454.648 6  -8334892.976 3
  21971499.641     1594758.476 7   1242657.701 4
  21305857.857   -18220795.605 8 -14198009.868 8
 91 11 20 18 48  0.0020000  0  4 17 21  3 23
  21456361.169    -3041383.320 8  -2369914.726 8
  23469665.696   -10764496.138 6  -8387912.280 3
  21986623.884     1674246.264 7   1304596.094 4
  21305294.546   -18223765.405 8 -14200324.023 8
 91 11 20 18 48 30.0020000  0  4 17 21  3 23
  21460667.987    -3018749.502 8  -2352278.002 8
  23456761.417   -10832332.714 6  -8440771.894 4
  22001848.536     1754243.822 7   1366931.718 4
  21304797.198   -18226366.381 8 -14202350.756 7
 91 11 20 18 49  0.0020000  0  4 17 21  3 23
  21465016.773    -2995894.597 8  -2334469.007 8
  23443893.435   -10899944.054 6  -8493456.014 4
  22017169.426     1834762.477 7   1429673.401 4
  21304372.686   -18228598.585 8 -14204090.136 8
 91 11 20 18 49 30.0020000  0  4 17 21  3 23
  21469412.343    -2972806.187 8  -2316478.066 8
  23431076.407   -10967319.547 6  -8545956.370 4
  22032593.150     1915802.698 7   1492821.493 4
  21304013.840   -18230475.838 8 -14205552.929 8
 91 11 20 18 50  0.0020000  0  4 17 21  3 23
  21473848.957    -2949487.186 8  -2298307.443 8
  23418296.548   -11034450.688 6  -8598266.306 3
  22048114.909     1997369.249 7   1556379.698 4
  21303725.737   -18231992.885 8 -14206735.039 9
 91 11 20 18 50 30.0020000  0  4 17 21  3 23
  21478326.962    -2925950.461 8  -2279967.160 8
  23405564.660   -11101333.283 6  -8650382.514 2
  22063733.500     2079456.200 7   1620343.419 3
  21303507.190   -18233147.785 8 -14207634.955 8
 91 11 20 18 51  0.0020000  0  4 17 21  3 23
  21482850.529    -2902175.481 8  -2261441.247 8
  23392890.636   -11167963.864 7  -8702302.375 4
  22079450.108     2162062.100 7   1684711.496 4
  21303355.199   -18233941.545 8 -14208253.460 7
 91 11 20 18 51 30.0020000  0  4 17 21  3 23
  21487421.160    -2878158.127 8  -2242726.458 8
  23380257.377   -11234367.823 7  -8754045.663 3
  22095270.755     2245177.267 7   1749476.415 4
  21303273.654   -18234376.118 8 -14208592.071 7
 91 11 20 18 52  0.0020000  0  4 17 21  3 23
  21492037.074    -2853911.169 8  -2223832.768 8
  23367663.101   -11300549.281 7  -8805615.566 1
  22111182.840     2328796.928 7   1814634.455 4
  21303252.365   -18234462.861 8 -14208659.707 8
 91 11 20 18 52 30.0020000  0  4 17 21  3 23
  21496691.955    -2829436.249 8  -2204761.445 8
  23355107.791   -11366512.141 7  -8857015.081 3
  22127190.257     2412913.301 7   1880179.537 4
  21303302.429   -18234219.835 8 -14208470.323 9
 91 11 20 18 53  0.0020000  0  4 17 21  3 23
  21501391.804    -2804736.013 8  -2185514.542 7
  23342599.859   -11432250.581 7  -8908239.778 3
  22143284.924     2497520.568 7   1946107.128 4
  21303409.452   -18233661.560 8 -14208035.313 7
 91 11 20 18 53 30.0020000  0  4 17 21  3 23
  21506135.419    -2779827.608 8  -2166105.436 8
  23330132.987   -11497745.276 6  -8959274.566 4
  22159483.612     2582611.318 7   2012411.444 3
  21303572.245   -18232803.064 8 -14207366.370 8
 91 11 20 18 54  0.0020000  0  4 17 21  3 23
  21510908.699    -2754713.458 8  -2146536.017 8
  23317727.872   -11562973.196 6  -9010101.417 2
  22175771.331     2668190.387 7   2079096.289 4
  21303794.089   -18231636.104 8 -14206457.079 7
 91 11 20 18 54 30.0020000  0  4 17 21  3 23
  21515733.563    -2729378.734 8  -2126794.720 8
  23305360.239   -11627931.307 6  -9060718.026 5
  22192146.005     2754256.983 7   2146161.013 4
  21304080.395   -18230145.119 8 -14205295.312 8
 91 11 20 18 55  0.0020000  0  4 17 21  3 23
  21520596.205    -2703815.758 8  -2106875.576 8
  23293050.454   -11692619.325 6  -9111124.225 5
  22208615.398     2840811.097 7   2213605.635 3
  21304426.346   -18228322.006 8 -14203874.757 8
 91 11 20 18 55 30.0020000  0  4 17 21  3 23
  21525505.301    -2678023.083 8  -2086777.444 7
  23280781.154   -11757058.127 6  -9161336.236 3
  22225180.436     2927854.793 7   2281431.752 3
  21304837.071   -18226162.025 8 -14202191.720 8
 91 11 20 18 56  0.0020000  0  4 17 21  3 23
  21530462.663    -2651986.046 8  -2066488.898 7
  23268573.296   -11821255.419 6  -9211360.007 3
  22241838.990     3015400.664 7   2349649.157 4
  21305316.743   -18223638.628 8 -14200225.487 7
 91 11 20 18 56 30.0020000  0  4 17 21  3 23
  21535462.901    -2625700.325 8  -2046006.570 7
  23256398.139   -11885209.787 6  -9261194.489 3
  22258596.190     3103455.802 7   2418263.404 3
  21305868.362   -18220744.861 8 -14197970.664 7
 91 11 20 18 57  0.0020000  0  4 17 21  3 23
  21540508.422    -2599179.063 8  -2025340.712 8
  23244273.623   -11948934.835 7  -9310850.315 4
  22275450.221     3192016.820 7   2487271.858 3
  21306492.225   -18217483.521 8 -14195429.420 7
 91 11 20 18 57 30.0020000  0  4 17 21  3 23
  21545599.191    -2572423.184 8  -2004492.029 8
  23232196.485   -12012433.746 7  -9360329.921 3
  22292395.691     3281075.584 7   2556668.162 4
  21307180.252   -18213853.429 8 -14192600.822 8
 91 11 20 18 58  0.0020000  0  4 17 21  3 23
  21550736.134    -2545429.475 8  -1983458.029 7
  23220155.328   -12075701.358 7  -9409629.243 2
  22309440.400     3370621.831 7   2626444.320 3
  21307938.429   -18209857.861 8 -14189487.451 8
 91 11 20 18 58 30.0020000  0  4 17 21  3 23
  21555923.438    -2518184.906 9  -1962228.542 7
  23208159.420   -12138736.176 7  -9458747.190 4
  22326564.247     3460650.621 7   2696596.498 3
  21308770.647   -18205506.368 8 -14186096.719 8
 91 11 20 18 59  0.0020000  0  4 17 21  3 23
  21561156.322    -2490672.055 8  -1940790.007 8
  23196204.608   -12201536.502 7  -9507682.447 4
  22343791.224     3551160.471 7   2767123.509 4
  21309661.027   -18200816.169 8 -14182442.060 9
 91 11 20 18 59 30.0020000  0  4 17 21  3 23
  21566442.255    -2462893.278 8  -1919144.250 7
  23184303.437   -12264097.415 7  -9556431.081 3
  22361106.325     3642149.146 7   2838023.627 3
  21310613.477   -18195805.450 8 -14178537.652 8
 91 11 20 19  0  0.0020000  0  3 17 21 23
  21571774.675    -2434872.192 8  -1897309.669 7
  23172438.860   -12326428.572 7  -9605000.708 5
  21311626.759   -18190498.138 8 -14174402.103 7
 91 11 20 19  0 30.0020000  0  3 17 21 23
  21577149.953    -2406615.372 8  -1875291.399 7
  23160624.329   -12388527.658 7  -9653389.553 3
  21312690.123   -18184905.779 8 -14170044.424 8
 91 11 20 19  1  0.0020000  0  3 17 21 23
  21582572.591    -2378149.799 8  -1853110.472 7
  23148847.579   -12450397.396 7  -9701599.629 3
  21313809.851   -18179020.973 8 -14165458.851 8
 91 11 20 19  1 30.0020000  0  3 17 21 23
  21588023.131    -2349484.310 8  -1830773.745 7
  23137126.006   -12512018.754 7  -9749616.167 3
  21314988.334   -18172819.400 8 -14160626.459 8
 91 11 20 19  2  0.0020000  0  3 17 21 23
  21593521.311    -2320606.049 8  -1808271.243 7
  23125450.589   -12573373.189 7  -9797424.738 4
  21316228.574   -18166290.887 8 -14155539.301 8
 91 11 20 19  2 30.0020000  0  3 17 21 23
  21599058.178    -2291499.057 8  -1785590.483 7
  23113827.923   -12634460.127 7  -9845024.868 4
  21317536.869   -18159432.590 8 -14150195.142 8
 91 11 20 19  3  0.0020000  0  3 17 21 23
  21604641.218    -2262167.405 8  -1762734.680 7
  23102252.042   -12695277.895 7  -9892415.223 4
  21318902.436   -18152247.739 8 -14144596.535 8
 91 11 20 19  3 30.0020000  0  3 17 21 23
  21610268.023    -2232601.399 8  -1739696.261 7
  23090723.818   -12755827.552 7  -9939596.726 4
  21320327.036   -18144760.917 8 -14138762.635 8
 91 11 20 19  4  0.0020000  0  3 17 21 23
  21615942.799    -2202793.122 8  -1716469.054 7
  23079253.458   -12816134.944 7  -9986589.466 4
  21321808.316   -18136982.171 8 -14132701.250 7
 91 11 20 19  4 30.0020000  0  3 17 21 23
  21621657.745    -2172742.180 8  -1693052.768 6
  23067819.988   -12876208.067 7 -10033399.653 4
  21323349.554   -18128891.896 8 -14126397.120 8
 91 11 20 19  5  0.0020000  0  3 17 21 23
  21627423.943    -2142451.785 8  -1669449.865 7
  23056434.768   -12936038.101 7 -10080020.403 2
  21324948.343   -18120472.072 8 -14119836.206 8
 91 11 20 19  5 30.0020000  0  3 17 21 23
  21633236.017    -2111918.201 8  -1645657.474 7
  23045091.516   -12995644.806 7 -10126467.178 2
  21326610.999   -18111717.627 8 -14113014.560 8
 91 11 20 19  6  0.0020000  0  3 17 21 23
  21639094.265    -2081143.155 8  -1621676.939 7
  23033791.732   -13055025.443 7 -10172737.800 5
  21328346.197   -18102615.854 8 -14105922.271 7
 91 11 20 19  6 30.0020000  0  3 17 21 23
  21644987.884    -2050130.117 8  -1597510.966 7
  23022536.935   -13114165.266 7 -10218820.791 5
  21330138.648   -18093172.968 8 -14098564.165 8
 91 11 20 19  7  0.0020000  0  3 17 21 23
  21650935.773    -2018888.885 8  -1573167.168 7
  23011335.186   -13173067.831 7 -10264718.900 4
  21331997.358   -18083420.418 8 -14090964.787 8
 91 11 20 19  7 30.0020000  0  3 17 21 23
  21656925.630    -1987413.725 8  -1548641.087 7
  23000168.513   -13231733.167 7 -10310432.155 4
  21333907.337   -18073381.732 8 -14083142.456 9
 91 11 20 19  8  0.0020000  0  3 17 21 23
  21662963.144    -1955694.847 9  -1523925.118 8
  22989057.313   -13290129.746 7 -10355936.005 5
  21335875.180   -18063057.214 8 -14075097.409 8
 91 11 20 19  8 30.0020000  0  3 17 21 23
  21669047.738    -1923715.518 8  -1499006.185 6
  22977994.661   -13348255.021 7 -10401228.424 4
  21337893.385   -18052444.446 8 -14066827.746 7
 91 11 20 19  9  0.0020000  0  3 17 21 23
  21675179.378    -1891476.616 8  -1473885.016 7
  22966973.993   -13406120.354 7 -10446318.272 3
  21339967.047   -18041537.136 8 -14058328.566 7
 91 11 20 19  9 30.0020000  0  3 17 21 23
  21681366.510    -1858966.635 8  -1448552.595 7
  22956017.176   -13463731.466 7 -10491210.071 4
  21342108.171   -18030316.126 8 -14049584.958 8
 91 11 20 19 10  0.0020000  0  3 17 21 23
  21687606.690    -1826188.593 8  -1423011.306 7
  22945096.044   -13521103.786 7 -10535915.781 3
  21344300.547   -18018765.045 8 -14040584.160 8
 91 11 20 19 10 30.0020000  0  3 17 21 23
  21693894.824    -1793147.946 8  -1397265.397 7
  22934223.163   -13578251.331 7 -10580446.346 4
  21346567.871   -18006871.233 8 -14031316.299 9
 91 11 20 19 11  0.0020000  0  3 17 21 23
  21700227.351    -1759849.539 8  -1371318.639 7
  22923395.564   -13635163.211 7 -10624793.276 5
  21348897.562   -17994629.055 8 -14021776.990 8
 91 11 20 19 11 30.0020000  0  3 17 21 23
  21706613.816    -1726300.263 8  -1345176.411 6
  22912609.934   -13691833.656 7 -10668952.083 5
  21351286.009   -17982061.608 8 -14011984.210 7
 91 11 20 19 12  0.0020000  0  3 17 21 23
  21713043.175    -1692524.816 8  -1318857.949 6
  22901872.256   -13748260.620 7 -10712921.145 4
  21353735.618   -17969189.823 8 -14001954.273 8
 91 11 20 19 12 30.0020000  0  3 17 21 23
  21719509.405    -1658527.376 8  -1292366.502 7
  22891183.457   -13804418.149 7 -10756680.247 3
  21356244.872   -17956025.400 8 -13991696.307 7
 91 11 20 19 13  0.0020000  0  3 17 21 23
  21726022.995    -1624305.687 8  -1265700.318 5
  22880554.320   -13860298.906 7 -10800223.650 4
  21358799.113   -17942583.535 8 -13981222.155 8
 91 11 20 19 13 30.0020000  0  3 17 21 23
  21732577.053    -1589858.096 8  -1238858.116 5
  22869970.746   -13915913.527 7 -10843559.681 5
  21361411.794   -17928866.159 8 -13970533.326 9
 91 11 20 19 14  0.0020000  0  3 17 21 23
  21739174.876    -1555173.438 8  -1211831.164 6
  22859434.845   -13971262.885 7 -10886689.009 4
  21364076.058   -17914854.373 8 -13959615.079 8
 91 11 20 19 14 30.0020000  0  3 17 21 23
  21745829.080    -1520227.851 8  -1184600.898 7
  22848954.401   -14026361.164 7 -10929622.691 3
  21366798.467   -17900546.634 8 -13948466.210 8
 91 11 20 19 15  0.0020000  0  3 17 21 23
  21752529.440    -1485012.829 8  -1157160.703 7
  22838513.221   -14081237.467 7 -10972383.372 2
  21369580.241   -17885949.850 8 -13937092.107 7
 91 11 20 19 15 30.0020000  0  3 17 21 23
  21759284.664    -1449524.948 8  -1129507.888 7
  22828109.837   -14135899.868 7 -11014977.382 4
  21372410.597   -17871057.944 8 -13925488.044 8
 91 11 20 19 16  0.0020000  0  3 17 21 23
  21766088.451    -1413761.618 8  -1101640.439 6
  22817745.699   -14190342.860 7 -11057400.429 4
  21375300.283   -17855880.895 8 -13913661.803 9
 91 11 20 19 16 30.0020000  0  3 17 21 23
  21772945.305    -1377726.215 8  -1073560.980 6
  22807429.549   -14244561.573 7 -11099648.716 3
  21378241.849   -17840426.123 8 -13901619.160 8
 91 11 20 19 17  0.0020000  0  3 17 21 23
  21779849.832    -1341447.229 8  -1045291.710 7
  22797156.850   -14298544.408 7 -11141713.156 3
  21381230.181   -17824703.257 8 -13889367.588 7
 91 11 20 19 17 30.0020000  0  3 17 21 23
  21786800.813    -1304932.769 8  -1016838.949 6
  22786937.235   -14352270.066 7 -11183577.255 5
  21384278.769   -17808696.020 8 -13876894.457 8
 91 11 20 19 18  0.0020000  0  3 17 21 23
  21793789.572    -1268183.297 8   -988203.051 6
  22776764.369   -14405721.335 7 -11225227.550 5
  21387380.720   -17792409.812 8 -13864203.934 8
 91 11 20 19 18 30.0020000  0  3 17 21 23
  21800828.397    -1231203.438 8   -959387.639 6
  22766643.975   -14458898.165 7 -11266663.998 5
  21390531.845   -17775835.646 8 -13851289.036 8
 91 11 20 19 19  0.0020000  0  3 17 21 23
  21807911.301    -1193986.936 8   -930387.835 6
  22756580.243   -14511789.676 7 -11307878.083 4
  21393743.226   -17758958.575 8 -13838138.111 9
 91 11 20 19 19 30.0020000  0  3 17 21 23
  21815045.159    -1156503.841 8   -901180.287 6
  22746569.576   -14564397.343 7 -11348871.016 5
  21397017.847   -17741754.646 8 -13824732.504 8
 91 11 20 19 20  0.0020000  0  3 17 21 23
  21822228.192    -1118748.627 8   -871760.698 6
  22736608.678   -14616752.950 7 -11389667.549 5
  21400347.941   -17724249.914 8 -13811092.496 8
 91 11 20 19 20 30.0020000  0  3 17 21 23
  21829464.571    -1080707.216 8   -842118.097 6
  22726688.543   -14668870.024 7 -11430278.231 5
  21403737.105   -17706436.320 8 -13797211.815 7
 91 11 20 19 21  0.0020000  0  3 17 21 23
  21836758.832    -1042372.055 8   -812246.587 6
  22716812.470   -14720752.215 7 -11470705.861 4
  21407185.321   -17688317.538 8 -13783093.332 7
 91 11 20 19 21 30.0020000  0  3 17 21 23
  21844110.329    -1003752.497 8   -782153.464 6
  22706984.979   -14772414.563 7 -11510962.184 4
  21410687.789   -17669923.493 8 -13768760.358 8
 91 11 20 19 22  0.0020000  0  3 17 21 23
  21851507.424     -964879.918 8   -751863.180 6
  22697195.860   -14823851.140 7 -11551042.604 4
  21414232.242   -17651288.855 8 -13754239.918 8
 91 11 20 19 22 30.0020000  0  3 17 21 23
  21858952.158     -925766.837 8   -721385.504 6
  22687460.698   -14875024.482 7 -11590917.925 5
  21417827.353   -17632392.648 8 -13739515.664 8
 91 11 20 19 23  0.0020000  0  3 17 21 23
  21866437.080     -886425.980 8   -690730.319 6
  22677774.710   -14925931.177 7 -11630585.447 4
  21421474.030   -17613233.899 8 -13724586.834 9
 91 11 20 19 23 30.0020000  0  3 17 21 23
  21873967.564     -846866.117 8   -659904.511 6
  22668131.877   -14976572.172 7 -11670045.921 4
  21425170.457   -17593815.160 8 -13709455.419 8
 91 11 20 19 24  0.0020000  0  3 17 21 23
  21881539.720     -807072.810 8   -628896.777 5
  22658551.411   -15026940.489 7 -11709293.926 4
  21428919.375   -17574107.607 8 -13694098.939 8
 91 11 20 19 24 30.0020000  0  3 17 21 23
  21889158.345     -767021.983 8   -597688.378 6
  22649013.506   -15077049.237 7 -11748339.680 5
  21432729.438   -17554090.959 8 -13678501.610 7
 91 11 20 19 25  0.0020000  0  3 17 21 23
  21896829.740     -726707.242 8   -566274.351 5
  22639519.383   -15126914.811 7 -11787195.944 4
  21436591.660   -17533787.948 8 -13662681.136 8
 91 11 20 19 25 30.0020000  0  3 17 21 23
  21904552.090     -686127.363 8   -534653.744 6
  22630082.218   -15176529.986 7 -11825857.100 4
  21440510.246   -17513211.569 8 -13646647.648 8
 91 11 20 19 26  0.0020000  0  3 17 21 23
  21912328.413     -645268.996 8   -502816.114 5
  22620687.021   -15225897.155 7 -11864324.951 4
  21444471.393   -17492371.317 8 -13630408.540 8
 91 11 20 19 26 30.0020000  0  3 17 21 23
  21920158.395     -604133.739 8   -470762.734 6
  22611340.702   -15275013.854 8 -11902597.645 5
  21448488.625   -17471278.728 8 -13613972.807 8
 91 11 20 19 27  0.0020000  0  3 17 21 23
  21928032.143     -562731.470 8   -438501.300 5
  22602045.931   -15323879.487 8 -11940674.738 5
  21452546.010   -17449944.574 8 -13597348.846 8
 91 11 20 19 27 30.0020000  0  3 17 21 23
  21935960.458     -521074.331 8   -406041.248 6
  22592793.441   -15372512.165 8 -11978570.299 5
  21456651.366   -17428371.595 8 -13580538.765 7
 91 11 20 19 28  0.0020000  0  3 17 21 23
  21943936.725     -479151.253 8   -373373.986 6
  22583583.513   -15420899.717 8 -12016274.849 5
  21460806.786   -17406544.646 8 -13563530.770 7
 91 11 20 19 28 30.0020000  0  3 17 21 23
  21951963.965     -436989.077 8   -340520.417 6
  22574418.851   -15469035.226 8 -12053782.999 3
  21465008.380   -17384466.586 8 -13546327.137 7
 91 11 20 19 29  0.0020000  0  3 17 21 23
  21960036.488     -394580.779 8   -307475.083 7
  22565311.757   -15516912.895 8 -12091090.235 5
  21469258.537   -17362136.969 8 -13528927.438 8
 91 11 20 19 29 30.0020000  0  3 17 21 23
  21968148.274     -351920.215 8   -274233.178 6
  22556250.539   -15564524.885 8 -12128190.459 5
  21473553.664   -17339554.124 8 -13511330.450 8
 91 11 20 19 30  0.0020000  0  3 17 21 23
  21976318.204     -309003.756 8   -240791.885 6
  22547239.665   -15611866.801 7 -12165080.242 4
  21477900.060   -17316724.968 8 -13493541.511 7
 91 11 20 19 30 30.0020000  0  3 17 21 23
  21984536.419     -265821.580 8   -207143.528 6
  22538277.373   -15658957.795 7 -12201774.507 5
  21482291.424   -17293653.455 8 -13475563.715 7
 91 11 20 19 31  0.0020000  0  3 17 21 23
  21992810.702     -222351.878 8   -173271.138 5
  22529362.441   -15705820.801 8 -12238291.110 3
  21486727.444   -17270324.182 8 -13457385.081 8
 91 11 20 19 31 30.0020000  0  3 17 21 23
  22001131.140     -178599.834 8   -139178.736 6
  22520488.883   -15752462.020 8 -12274634.894 4
  21491218.642   -17246728.786 8 -13438999.081 9
 91 11 20 19 32  0.0020000  0  3 17 21 23
  22009510.630     -134570.643 8   -104870.382 6
  22511651.307   -15798886.454 8 -12310809.771 5
  21495757.792   -17222859.334 8 -13420399.554 7
 91 11 20 19 32 30.0020000  0  3 17 21 23
  22017941.703      -90265.648 8    -70347.105 5
  22502858.998   -15845092.417 8 -12346814.406 6
  21500358.717   -17198696.849 8 -13401571.661 7
 91 11 20 19 33  0.0020000  0  3 17 21 23
  22026423.416      -45702.130 8    -35622.374 5
  22494108.359   -15891072.317 8 -12382642.880 5
  21505005.186   -17174256.510 8 -13382527.260 8
 91 11 20 19 33 30.0020000  0  3 17 21 23
  22034950.116        -891.413 8      -705.037 6
  22485407.768   -15936802.686 8 -12418276.931 5
  21509706.833   -17149569.376 8 -13363290.567 8
 91 11 20 19 34  0.0020000  0  3 17 21 23
  22043526.584       44169.540 8     34407.314 5
  22476750.663   -15982279.523 8 -12453713.389 4
  21514451.652   -17124650.526 8 -13343873.316 8
 91 11 20 19 34 30.0020000  0  3 17 21 23
  22052144.723       89485.599 7     69718.433 6
  22468145.123   -16027503.558 8 -12488952.883 4
  21519232.139   -17099515.697 8 -13324287.791 9
 91 11 20 19 35  0.0020000  0  3 17 21 23
  22060818.912      135056.221 8    105227.926 6
  22459590.851   -16072467.155 8 -12523989.435 4
  21524053.704   -17074182.027 8 -13304547.328 8
 91 11 20 19 35 30.0020000  0  3 17 21 23
  22069539.274      180883.978 8    140937.773 6
  22451087.535   -16117165.104 8 -12558818.994 6
  21528914.236   -17048636.769 8 -13284641.988 8
 91 11 20 19 36  0.0020000  0  3 17 21 23
  22078309.701      226971.638 7    176850.146 6
  22442625.593   -16161609.722 8 -12593451.143 5
  21533814.955   -17022860.233 8 -13264556.429 7
 91 11 20 19 36 30.0020000  0  3 17 21 23
  22087131.990      273325.265 7    212969.776 6
  22434216.717   -16205794.110 8 -12627880.500 4
  21538772.021   -16996833.161 8 -13244275.658 8
 91 11 20 19 37  0.0020000  0  3 17 21 23
  22096006.159      319948.348 8    249299.372 6
  22425861.203   -16249715.169 8 -12662104.651 5
  21543774.352   -16970540.841 8 -13223788.195 8
 91 11 20 19 37 30.0020000  0  3 17 21 23
  22104927.374      366847.454 7    285844.039 5
  22417548.548   -16293388.465 8 -12696135.760 6
  21548826.766   -16943991.318 8 -13203100.332 7
 91 11 20 19 38  0.0020000  0  3 17 21 23
  22113904.655      414027.507 8    322607.640 5
  22409286.271   -16336824.021 8 -12729981.619 5
  21553930.117   -16917189.158 8 -13182215.592 8
 91 11 20 19 38 30.0020000  0  4 17 21 23 11
  22122941.303      461500.655 8    359599.618 5
  22401062.367   -16380015.105 8 -12763636.991 5
  21559076.361   -16890140.331 8 -13161138.660 8
  25992027.086    -3802677.084 5  -2963125.244 2
 91 11 20 19 39  0.0020000  0  4 17 21 23 11
  22132032.518      509261.912 8    396816.113 5
  22392890.622   -16422968.770 8 -12797107.324 4
  21564262.478   -16862869.625 8 -13139888.838 8
  25971544.369    -3910300.024 5  -3046987.354 2
 91 11 20 19 39 30.0020000  0  4 17 21 23 11
  22141170.778      557296.001 7    434245.227 5
  22384764.457   -16465696.297 8 -12830401.458 5
  21569491.750   -16835395.029 8 -13118480.123 7
  25951073.641    -4017894.701 5  -3130827.486 2
 91 11 20 19 40  0.0020000  0  4 17 21 23 11
  22150363.919      605596.242 8    471881.679 5
  22376678.149   -16508193.299 8 -12863515.966 6
  21574763.897   -16807690.713 8 -13096892.408 7
  25930599.318    -4125457.720 5  -3214642.959 1
 91 11 20 19 40 30.0020000  0  4 17 21 23 11
  22159601.733      654155.359 8    509719.877 6
  22368632.324   -16550460.223 8 -12896451.195 6
  21580079.530   -16779759.317 8 -13075127.735 7
  25910135.186    -4232988.438 5  -3298433.251 2
 91 11 20 19 41  0.0020000  0  4 17 21 23 11
  22168890.798      702973.280 7    547759.724 5
  22360635.047   -16592478.053 8 -12929192.322 4
  21585439.818   -16751585.330 8 -13053174.032 7
  25889680.651    -4340479.938 5  -3382192.896 2
 91 11 20 19 41 30.0020000  0  4 17 21 23 11
  22178229.631      752050.179 7    586001.379 4
  22352690.259   -16634238.154 8 -12961732.605 5
  21590850.468   -16723150.977 8 -13031017.446 8
  25869235.697    -4447933.081 5  -3465922.662 2
 91 11 20 19 42  0.0020000  0  4 17 21 23 11
  22187620.936      801391.223 8    624448.866 5
  22344794.315   -16675727.781 8 -12994062.155 6
  21596312.683   -16694464.540 8 -13008664.429 8
  25848797.950    -4555338.218 6  -3549615.036 3
 91 11 20 19 42 30.0020000  0  4 17 21 23 11
  22197061.696      850999.386 7    663104.515 5
  22336953.251   -16716939.509 8 -13026175.169 6
  21601813.270   -16665552.050 8 -12986135.280 8
  25828365.594    -4662689.969 5  -3633265.792 1
 91 11 20 19 43  0.0020000  0  4 17 21 23 11
  22206554.021      900881.563 8    701973.665 4
  22329161.939   -16757869.577 8 -13058068.704 6
  21607358.845   -16636411.275 8 -12963428.231 7
  25807957.216    -4769983.888 6  -3716871.492 1
 91 11 20 19 43 30.0020000  0  4 17 21 23 11
  22216098.819      951043.352 8    741060.707 5
  22321421.894   -16798534.758 8 -13089755.830 5
  21612947.260   -16607050.831 8 -12940549.997 7
  25787547.947    -4877217.001 6  -3800429.763 3
 91 11 20 19 44  0.0020000  0  4 17 21 23 11
  22225694.869     1001492.901 8    780371.952 5
  22313731.933   -16838949.243 8 -13121247.611 5
  21618572.878   -16577478.537 8 -12917506.687 8
  25767151.871    -4984388.359 6  -3883939.900 2
 91 11 20 19 44 30.0020000  0  4 17 21 23 11
  22235354.192     1052239.999 8    819915.060 5
  22306090.220   -16879113.355 8 -13152544.306 6
  21624246.450   -16547674.518 8 -12894282.814 8
  25746773.786    -5091497.326 5  -3967401.338 2
 91 11 20 19 45  0.0020000  0  4 17 21 23 11
  22245065.361     1103285.534 7    859690.721 6
  22298493.774   -16919030.270 8 -13183648.387 6
  21629961.082   -16517625.848 8 -12870868.309 9
  25726399.889    -5198542.949 6  -4050813.472 2
 91 11 20 19 45 30.0020000  0  4 17 21 23 11
  22254837.395     1154626.849 8    899696.840 5
  22290946.503   -16958711.325 8 -13214568.700 6
  21635725.203   -16487349.041 8 -12847276.049 8
  25706041.278    -5305526.844 6  -4134177.516 2
 91 11 20 19 46  0.0020000  0  4 17 21 23 11
  22264665.794     1206253.464 8    939925.280 6
  22283439.402   -16998154.917 8 -13245303.960 6
  21641527.680   -16456842.551 8 -12823504.799 8
  25685691.358    -5412446.220 6  -4217491.297 2
 91 11 20 19 46 30.0020000  0  4 17 21 23 11
  22274542.460     1258153.372 8    980366.678 5
  22275979.957   -17037350.966 8 -13275846.342 5
  21647375.126   -16426111.403 8 -12799558.485 7
  25665363.041    -5519297.521 6  -4300751.988 1
 91 11 20 19 47  0.0020000  0  4 17 21 23 11
  22284460.780     1310316.746 7   1021013.380 5
  22268567.593   -17076308.695 8 -13306203.004 5
  21653266.651   -16395174.612 8 -12775451.910 7
  25645040.709    -5626074.684 5  -4383954.774 2
 91 11 20 19 47 30.0020000  0  4 17 21 23 11
  22294442.671     1362746.333 7   1061867.504 5
  22261196.586   -17115023.270 8 -13336370.216 5
  21659189.656   -16364037.310 8 -12751189.117 8
  25624733.071    -5732770.344 5  -4467094.174 2
 91 11 20 19 48  0.0020000  0  4 17 21 23 11
  22304468.938     1415436.495 7   1102924.681 4
  22253879.867   -17153477.498 8 -13366334.553 5
  21665157.317   -16332686.624 8 -12726760.056 7
  25604450.613    -5839381.952 5  -4550168.110 2
 91 11 20 19 48 30.0020000  0  4 17 21 23 11
  22314551.255     1468407.252 8   1144200.508 5
  22246617.680   -17191660.373 8 -13396087.440 5
  21671164.257   -16301109.783 8 -12702154.771 8
  25584178.642    -5945898.722 5  -4633168.008 1
 91 11 20 19 49  0.0020000  0  4 17 21 23 11
  22324687.842     1521678.191 7   1185710.229 5
  22239403.777   -17229567.395 8 -13425625.386 5
  21677222.170   -16269291.027 8 -12677360.975 8
  25563931.853    -6052306.295 5  -4716082.902 3
 91 11 20 19 49 30.0030000  0  4 17 21 23 11
  22334884.985     1575261.943 7   1227463.713 5
  22232240.536   -17267194.621 8 -13454945.297 6
  21683323.555   -16237217.678 8 -12652368.795 7
  25543706.356    -6158605.045 6  -4798913.014 1
 91 11 20 19 50  0.0030000  0  4 17 21 23 11
  22345142.677     1629154.359 7   1269457.706 4
  22225132.155   -17304549.287 8 -13484052.816 5
  21689473.483   -16204893.189 8 -12627180.936 8
  25523501.254    -6264787.217 5  -4881652.182 1
 91 11 20 19 50 30.0030000  0  4 17 21 23 11
  22355451.951     1683356.817 7   1311693.288 4
  22218069.650   -17341658.471 8 -13512969.023 5
  21695669.601   -16172335.838 8 -12601811.625 8
  25503312.330    -6370859.325 5  -4964305.727 3
 91 11 20 19 51  0.0030000  0  4 17 21 23 11
  22365825.059     1737862.922 7   1354165.476 4
  22211057.507   -17378514.318 8 -13541687.835 5
  21701905.890   -16139560.630 8 -12576272.557 8
  25483155.479    -6476815.586 6  -5046868.991 2
 91 11 20 19 51 30.0030000  0  4 17 21 23 11
  22376254.844     1792668.227 7   1396870.820 5
  22204094.818   -17415113.535 8 -13570206.676 6
  21708182.646   -16106574.826 8 -12550569.398 8
  25463002.222    -6582655.643 5  -5129341.674 2
 91 11 20 19 52  0.0030000  0  4 17 21 23 11
  22386740.977     1847757.273 7   1439797.269 5
  22197172.613   -17451468.796 8 -13598535.425 6
  21714499.573   -16073384.814 8 -12524707.127 8
  25442894.249    -6688383.656 5  -5211726.948 2
 91 11 20 19 52 30.0030000  0  4 17 21 23 11
  22397282.287     1903132.009 7   1482946.319 4
  22190305.272   -17487570.881 8 -13626666.871 5
  21720853.372   -16039998.893 8 -12498692.209 7
  25422793.169    -6793997.822 5  -5294023.643 3
 91 11 20 19 53  0.0030000  0  4 17 21 23 11
  22407868.549     1958798.477 7   1526322.693 5
  22183483.493   -17523403.503 8 -13654588.346 5
  21727247.341   -16006407.755 8 -12472517.354 7
  25402719.956    -6899487.088 6  -5376223.009 3
 91 11 20 19 53 30.0030000  0  4 17 21 23 11
  22418519.289     2014762.106 7   1569930.623 5
  22176713.576   -17558986.830 8 -13682315.589 6
  21733679.980   -15972599.234 8 -12446173.117 7
  25382665.643    -7004852.331 6  -5458325.590 1
 91 11 20 19 54  0.0030000  0  4 17 21 23 11
  22429225.766     2071024.858 7   1613771.651 5
  22169987.146   -17594329.014 8 -13709854.922 6
  21740152.806   -15938583.562 8 -12419667.469 7
  25362641.605    -7110097.339 5  -5540334.570 3
 91 11 20 19 54 30.0030000  0  4 17 21 23 11
  22439985.326     2127588.317 7   1657846.965 5
  22163311.059   -17629417.674 8 -13737196.710 6
  21746663.692   -15904367.164 8 -12393005.411 7
  25342638.560    -7215220.136 6  -5622248.322 2
 91 11 20 19 55  0.0030000  0  4 17 21 23 11
  22450805.124     2184443.939 7   1702149.964 5
  22156683.553   -17664262.821 8 -13764348.726 5
  21753216.266   -15869933.329 8 -12366173.917 7
  25322657.694    -7320218.225 5  -5704064.812 2
 91 11 20 19 55 30.0030000  0  4 17 21 23 11
  22461682.507     2241585.140 7   1746675.502 5
  22150102.797   -17698851.047 8 -13791300.563 6
  21759811.698   -15835271.330 8 -12339164.630 7
  25302703.806    -7425086.465 6  -5785780.213 3
 91 11 20 19 56  0.0030000  0  4 17 21 23 11
  22472607.530     2298997.273 7   1791412.142 3
  22143569.121   -17733162.779 8 -13818036.951 6
  21766448.208   -15800388.350 8 -12311983.160 7
  25282774.506    -7529819.675 6  -5867390.711 2
 91 11 20 19 56 30.0030000  0  4 17 21 23 11
  22483581.135     2356662.744 7   1836346.188 4
  22137093.014   -17767206.047 8 -13844564.161 7
  21773128.780   -15765288.878 8 -12284632.977 8
  25262862.289    -7634418.697 5  -5948896.344 2
 91 11 20 19 57  0.0030000  0  4 17 21 23 11
  22494607.212     2414591.985 7   1881485.745 3
  22130666.064   -17800982.381 8 -13870883.369 5
  21779844.426   -15729983.963 8 -12257122.701 6
  25242991.133    -7738879.860 6  -6030294.884 1
 91 11 20 19 57 30.0030000  0  4 17 21 23 11
  22505679.445     2472791.052 7   1926835.590 4
  22124281.972   -17834500.549 8 -13897001.408 4
  21786599.650   -15694502.460 8 -12229474.818 6
  25223130.796    -7843203.852 5  -6111586.167 2
 91 11 20 19 58  0.0030000  0  4 17 21 23 11
  22516805.337     2531267.023 7   1972401.171 5
  22117953.964   -17867786.033 8 -13922938.121 6
  21793384.556   -15658859.110 8 -12201700.813 7
  25203316.301    -7947389.602 6  -6192769.633 2
 91 11 20 19 58 30.0030000  0  4 17 21 23 11
  22527994.190     2590037.705 7   2018196.418 5
  22111660.421   -17900850.973 8 -13948703.009 6
  21800194.940   -15623047.386 8 -12173795.610 8
  25183509.623    -8051433.760 6  -6273842.826 3
 91 11 20 19 59  0.0030000  0  4 17 21 23 11
  22539231.921     2649115.318 7   2064230.813 4
  22105413.644   -17933686.078 8 -13974288.795 6
  21807047.291   -15587056.419 8 -12145750.746 7
  25163739.800    -8155324.569 6  -6354796.906 1
 91 11 20 19 59 30.0030000  0  4 17 21 23 11
  22550535.596     2708496.947 7   2110502.106 4
  22099207.038   -17966295.836 8 -13999698.999 6
  21813934.124   -15550866.286 8 -12117550.671 7
  25143998.770    -8259057.548 6  -6435627.705 1
 91 11 20 20  0  0.0030000  0  4 17 21 23 11
  22561889.336     2768173.045 7   2157002.867 3
  22093048.403   -17998672.007 8 -14024927.180 6
  21820861.128   -15514467.193 8 -12089187.745 7
  25124288.610    -8362634.808 5  -6516337.099 2
 91 11 20 20  0 30.0030000  0  4 17 21 23 11
  22573302.127     2828149.101 7   2203737.362 4
  22086933.236   -18030794.116 8 -14049957.365 5
  21827825.911   -15477854.234 8 -12060658.178 7
  25104609.947    -8466052.915 6  -6596922.417 3
 91 11 20 20  1  0.0030000  0  4 17 21 23 11
  22584768.892     2888407.913 7   2250692.204 4
  22080871.431   -18062657.953 8 -14074786.317 6
  21834832.959   -15441040.074 8 -12031971.846 8
  25084961.839    -8569313.249 6  -6677384.849 2
 91 11 20 20  1 30.0030000  0  4 17 21 23 11
  22596295.302     2948955.163 7   2297871.772 4
  22074858.191   -18094261.615 8 -14099412.556 6
  21841875.692   -15404022.316 8 -12003126.883 7
  25065341.931    -8672410.257 6  -6757719.961 4
 91 11 20 20  2  0.0030000  0  4 17 21 23 11
  22607866.698     3009787.372 7   2345273.400 3
  22068893.218   -18125605.030 8 -14123836.007 6
  21848958.875   -15366802.186 8 -11974124.208 6
  25045751.689    -8775334.836 6  -6837920.774 1
 91 11 20 20  2 30.0030000  0  4 17 21 23 11
  22619495.942     3070899.672 7   2392893.252 3
  22062972.918   -18156700.630 8 -14148066.358 7
  21856078.651   -15329384.674 8 -11944967.722 6
  25026202.820    -8878081.904 6  -6917983.681 2
 91 11 20 20  3  0.0030000  0  4 17 21 23 11
  22631179.160     3132287.432 7   2440727.755 5
  22057099.384   -18187569.215 8 -14172119.810 7
  21863235.893   -15291781.091 8 -11915666.265 7
  25006681.541    -8980650.971 6  -6997907.498 3
 91 11 20 20  3 30.0030000  0  4 17 21 23 11
  22642906.142     3193948.243 7   2488775.048 5
  22051265.130   -18218233.140 8 -14196013.785 6
  21870426.116   -15253993.777 8 -11886221.657 7
  24987202.212    -9083045.993 6  -7077695.581 2
 91 11 20 20  4  0.0030000  0  4 17 21 23 11
  22654696.085     3255881.846 7   2537034.896 5
  22045466.842   -18248694.334 8 -14219749.790 5
  21877653.211   -15216021.302 8 -11856632.778 7
  24967748.395    -9185260.906 6  -7157343.414 1
 91 11 20 20  4 30.0030000  0  4 17 21 23 11
  22666539.688     3318096.973 7   2585514.105 4
  22039713.226   -18278942.050 8 -14243319.458 6
  21884910.599   -15177873.825 8 -11826907.539 7
  24948332.026    -9287292.953 6  -7236849.148 3
 91 11 20 20  5  0.0030000  0  4 17 21 23 11
  22678431.540     3380604.335 7   2634221.032 3
  22033998.873   -18308957.613 8 -14266708.228 6
  21892206.640   -15139539.655 8 -11797036.809 6
  24928951.047    -9389131.773 6  -7316203.905 2
 91 11 20 20  5 30.0030000  0  4 17 21 23 11
  22690383.072     3443409.437 7   2683159.956 3
  22028332.211   -18338725.152 8 -14289903.744 6
  21899539.256   -15101003.465 8 -11767008.685 6
  24909606.643    -9490768.780 6  -7395401.331 3
 91 11 20 20  6  0.0030000  0  4 17 21 23 11
  22702390.968     3506508.783 7   2732328.173 4
  22022722.490   -18368222.178 8 -14312888.472 6
  21906905.168   -15062279.775 8 -11736834.445 7
  24890308.098    -9592204.890 6  -7474442.319 2
 91 11 20 20  6 30.0030000  0  4 17 21 23 11
  22714452.210     3569901.283 7   2781724.836 4
  22017166.428   -18397433.872 8 -14335650.861 6
  21914310.045   -15023380.021 8 -11706523.025 6
  24871039.829    -9693438.320 6  -7553325.284 2
 91 11 20 20  7  0.0030000  0  4 17 21 23 11
  22726572.817     3633593.893 7   2831355.346 4
  22011657.743   -18426360.681 8 -14358191.264 6
  21921748.794   -14984298.464 8 -11676069.951 7
  24851824.941    -9794464.280 6  -7632046.675 1
 91 11 20 20  7 30.0030000  0  4 17 21 23 11
  22738759.682     3697601.221 7   2881231.047 3
  22006208.424   -18454995.702 8 -14380504.307 6
  21929220.209   -14945032.891 8 -11645473.490 7
  24832636.420    -9895271.952 6  -7710597.880 2
 91 11 20 20  8  0.0030000  0  4 17 21 23 11
  22750994.222     3761905.044 7   2931337.826 4
  22000816.045   -18483349.361 8 -14402598.091 6
  21936721.918   -14905598.052 8 -11614745.131 7
  24813495.573    -9995869.228 6  -7788985.246 4
 91 11 20 20  8 30.0030000  0  4 17 21 23 11
  22763285.998     3826508.957 7   2981678.449 4
  21995469.246   -18511438.161 8 -14424485.484 6
  21944261.704   -14865989.963 8 -11583881.772 7
  24794392.191   -10096253.018 6  -7867206.191 2
 91 11 20 20  9  0.0030000  0  4 17 21 23 11
  22775639.252     3891410.911 7   3032251.272 2
  21990169.231   -18539282.994 8 -14446182.751 5
  21951832.062   -14826194.916 8 -11552872.726 7
  24775328.701   -10196419.425 6  -7945257.789 2
 91 11 20 20  9 30.0030000  0  4 17 21 23 11
  22788041.069     3956588.519 7   3083038.924 4
  21984916.558   -18566889.122 8 -14467694.020 6
  21959442.887   -14786209.496 8 -11521715.340 7
  24756308.661   -10296362.619 6  -8023135.486 3
 91 11 20 20 10  0.0030000  0  4 17 21 23 11
  22800490.857     4022033.686 7   3134035.046 4
  21979711.856   -18594257.349 8 -14489019.914 7
  21967086.397   -14746040.212 8 -11490414.673 6
  24737336.296   -10396073.731 6  -8100832.256 3
 91 11 20 20 10 30.0030000  0  4 17 21 23 11
  22813002.087     4087757.518 7   3185248.324 4
  21974547.342   -18621391.029 8 -14510163.032 7
  21974762.294   -14705696.193 8 -11458977.821 6
  24718404.101   -10495546.265 6  -8178343.218 4
 91 11 20 20 11  0.0030000  0  4 17 21 23 11
  22825554.989     4153756.157 7   3236675.728 4
  21969424.778   -18648303.003 8 -14531133.390 7
  21982473.248   -14665174.472 8 -11427402.505 5
  24699527.380   -10594777.490 6  -8255666.163 3
 91 11 20 20 11 30.0030000  0  4 17 21 23 11
  22838172.055     4220043.038 7   3288327.750 4
  21964347.794   -18674975.606 9 -14551917.194 6
  21990221.389   -14624476.590 8 -11395689.929 6
  24680691.109   -10693762.047 6  -8332796.778 2
 91 11 20 20 12  0.0030000  0  4 17 21 23 11
  22850849.393     4286644.203 7   3340224.669 4
  21959320.579   -18701416.741 9 -14572520.643 6
  21997998.306   -14583599.741 8 -11363837.892 7
  24661896.230   -10792501.376 6  -8409736.388 3
 91 11 20 20 12 30.0030000  0  4 17 21 23 11
  22863581.264     4353581.244 7   3392383.317 4
  21954332.940   -18727612.208 9 -14592932.663 7
  22005818.691   -14542514.588 8 -11331823.539 7
  24643161.292   -10890985.846 6  -8486477.350 4
 91 11 20 20 13  0.0030000  0  4 17 21 23 11
  22876386.915     4420855.998 7   3444805.093 3
  21949396.256   -18753547.808 8 -14613142.187 7
  22013679.839   -14501204.977 8 -11299634.270 6
  24624472.231   -10989205.500 6  -8563012.000 4
 91 11 20 20 13 30.0030000  0  4 17 21 23 11
  22889251.302     4488462.440 7   3497485.337 4
  21944511.434   -18779208.834 9 -14633137.771 6
  22021575.783   -14459687.832 8 -11267283.274 6
  24605826.045   -11087163.363 6  -8639342.674 2
 91 11 20 20 14  0.0030000  0  5 17 12 21 23 11
  22902176.260     4556395.274 6   3550419.906 3
  25398648.175    -2097637.865 4  -1634523.600 3
  21939682.365   -18804607.639 9 -14652928.998 6
  22029517.884   -14417980.365 8 -11234783.989 6
  24587229.610   -11184859.821 6  -8715469.584 4
 91 11 20 20 14 30.0030000  0  5 17 12 21 23 11
  22915158.768     4624622.891 6   3603584.182 4
  25387156.229    -2158050.331 5  -1681598.246 2
  21934897.079   -18829747.018 8 -14672518.093 7
  22037483.960   -14376108.192 8 -11202156.351 7
  24568686.852   -11282298.668 6  -8791395.854 2
 91 11 20 20 15  0.0030000  0  5 17 12 21 23 11
  22928200.642     4693121.930 7   3656959.920 4
  25375720.962    -2218144.435 5  -1728424.787
  21930160.968   -18854644.110 9 -14691918.397 7
  22045477.033   -14334097.734 8 -11169420.982 7
  24550196.845   -11379486.090 6  -8867126.569 1
 91 11 20 20 15 30.0030000  0  5 17 12 21 23 11
  22941286.281     4761893.025 7   3710547.663 3
  25364346.526    -2277921.516 5  -1775004.477 2
  21925467.121   -18879306.425 9 -14711135.771 6
  22053495.879   -14291952.858 8 -11136580.883 7
  24531753.012   -11476423.962 6  -8942662.445 2
 91 11 20 20 16  0.0030000  0  5 17 12 21 23 11
  22954420.484     4830927.539 7   3764340.670 3
  25353032.363    -2337371.647 4  -1821329.289 1
  21920815.836   -18903737.130 8 -14730172.662 6
  22061546.502   -14249660.695 8 -11103626.006 6
  24513351.758   -11573101.917 6  -9017995.763 3
 91 11 20 20 16 30.0030000  0  5 17 12 21 23 11
  22967606.253     4900220.803 7   3818335.312 4
  25341779.957    -2396485.950 4  -1867392.448
  21916214.615   -18927926.195 9 -14749021.246 6
  22069624.417   -14207208.000 8 -11070546.019 6
  24495007.757   -11669511.057 6  -9093119.553 3
 91 11 20 20 17  0.0030000  0  5 17 12 21 23 11
  22980842.696     4969797.424 7   3872550.703 3
  25330588.993    -2455253.326 5  -1913185.280 2
  21911660.771   -18951860.876 9 -14767671.634 7
  22077738.908   -14164579.565 8 -11037329.113 6
  24476710.227   -11765640.852 6  -9168025.759 2
 91 11 20 20 17 30.0030000  0  5 17 12 21 23 11
  22994141.787     5039665.191 7   3926992.979 3
  25319478.997    -2513673.595 5  -1958707.709 2
  21907153.990   -18975546.456 9 -14786127.925 7
  22085880.656   -14121772.109 8 -11003972.718 7
  24458473.859   -11861491.183 6  -9242714.081 3
 91 11 20 20 18  0.0030000  0  5 17 12 21 23 11
  23007490.941     5109811.210 7   3981652.100 4
  25308432.538    -2571748.423 5  -2003960.843 1
  21902691.882   -18998994.347 9 -14804399.009 7
  22094058.997   -14078793.387 8 -10970482.875 7
  24440288.743   -11957063.757 6  -9317186.086 2
 91 11 20 20 18 30.0030000  0  5 17 12 21 23 11
  23020895.274     5180248.116 7   4036537.856 3
  25297442.740    -2629479.177 5  -2048945.957 1
  21898272.650   -19022213.911 8 -14822492.176 6
  22102267.615   -14035659.729 8 -10936872.310 7
  24422153.988   -12052360.076 6  -9391442.738 3
 91 11 20 20 19  0.0030000  0  5 17 12 21 23 11
  23034357.140     5250985.112 7   4091657.449 3
  25286527.298    -2686859.414 4  -2093657.892 2
  21893892.366   -19045210.103 8 -14840411.291 6
  22110505.618   -13992364.680 8 -10903135.993 7
  24404071.706   -12147373.764 6  -9465479.273 4
 91 11 20 20 19 30.0030000  0  5 17 12 21 23 11
  23047872.682     5322018.500 6   4147008.020 3
  25275681.115    -2743885.373 4  -2138093.846 1
  21889561.571   -19067991.326 9 -14858162.887 6
  22118775.992   -13948910.497 8 -10869275.653 6
  24386045.491   -12242101.081 6  -9539292.590 2
 91 11 20 20 20  0.0030000  0  5 17 12 21 23 11
  23061441.902     5393340.938 6   4202583.808 5
  25264892.186    -2800556.304 4  -2182252.753 1
  21885266.147   -19090553.791 8 -14875744.041 7
  22127074.251   -13905305.058 8 -10835297.443 6
  24368072.640   -12336541.235 6  -9612882.166 2
 91 11 20 20 20 30.0030000  0  5 17 12 21 23 11
  23075065.671     5464956.188 6   4258387.797 3
  25254171.592    -2856874.163 4  -2226136.537 2
  21881015.693   -19112900.301 8 -14893156.908 7
  22135396.190   -13861557.761 8 -10801208.697 6
  24350157.635   -12430696.404 6  -9686249.699 2
 91 11 20 20 21  0.0030000  0  5 17 12 21 23 11
  23088757.181     5536869.083 6   4314423.688 2
  25243527.762    -2912832.117 5  -2269740.217 1
  21876806.910   -19135017.189 8 -14910390.859 7
  22143756.799   -13817647.241 8 -10766992.780 6
  24332295.104   -12524560.031 6  -9759389.998 2
 91 11 20 20 21 30.0030000  0  5 17 12 21 23 11
  23102498.477     5609072.027 7   4370685.628 4
  25232937.906    -2968418.724 5  -2313054.555 2
  21872646.377   -19156881.996 8 -14927428.365 7
  22152141.698   -13773576.451 8 -10732651.954 7
  24314492.531   -12618120.883 6  -9832294.417 4
 91 11 20 20 22  0.0030000  0  5 17 12 21 23 11
  23116293.416     5681556.082 7   4427166.577 3
  25222443.066    -3023630.124 4  -2356076.436 1
  21868535.926   -19178489.103 8 -14944265.075 6
  22160553.872   -13729350.490 8 -10698190.235 7
  24296746.306   -12711374.801 6  -9904959.597 3
 91 11 20 20 22 30.0030000  0  5 17 12 21 23 11
  23130133.044     5754331.614 6   4483874.670 4
  25212006.090    -3078463.205 4  -2398803.678 1
  21864472.538   -19199835.475 8 -14960898.580 7
  22169005.309   -13684966.166 8 -10663605.111 7
  24279055.257   -12804318.649 6  -9977383.264 4
 91 11 20 20 23  0.0030000  0  5 17 12 21 23 11
  23144042.211     5827384.826 7   4540799.155 3
  25201643.174    -3132921.025 5  -2441238.248 1
  21860457.120   -19220924.266 8 -14977331.385 6
  22177475.959   -13640423.888 8 -10628896.889 5
  24261432.265   -12896955.603 7 -10049567.816 2
 91 11 20 20 23 30.0030000  0  5 17 12 21 23 11
  23157991.252     5900710.356 7   4597935.837 3
  25191344.998    -3187000.737 5  -2483378.453 1
  21856493.862   -19241765.347 8 -14993571.165 7
  22185980.759   -13595735.376 8 -10594074.713 6
  24243858.430   -12989282.784 6 -10121510.875 3
 91 11 20 20 24  0.0030000  0  5 17 12 21 23 11
  23172010.146     5974336.100 6   4655306.440 3
  25181131.961    -3240690.900 5  -2525214.903 2
  21852572.885   -19262363.720 9 -15009621.821 7
  22194519.761   -13550885.262 8 -10559126.594 6
  24226350.853   -13081288.609 6 -10193203.617 4
 91 11 20 20 24 30.0030000  0  5 17 12 21 23 11
  23186077.604     6048268.623 6   4712916.100 2
  25170990.889    -3293981.234 5  -2566740.019 2
  21848695.360   -19282725.086 8 -15025487.785 6
  22203083.019   -13505865.987 8 -10524046.680 7
  24208908.017   -13172963.007 6 -10264638.055 2
 91 11 20 20 25  0.0030000  0  5 17 12 21 23 11
  23200196.942     6122485.021 6   4770746.979 2
  25160919.950    -3346870.783 5  -2607952.590 2
  21844864.915   -19302864.171 9 -15041180.525 6
  22211681.980   -13460684.688 8 -10488840.519 7
  24191522.452   -13264304.713 6 -10335813.288 3
 91 11 20 20 25 30.0030000  0  5 17 12 21 23 11
  23214375.924     6196983.530 6   4828797.654 2
  25150937.762    -3399357.797 5  -2648851.814 1
  21841073.733   -19322785.604 9 -15056703.688 7
  22220311.497   -13415345.674 8 -10453511.452 7
  24174209.446   -13355312.157 6 -10406728.078 3
 91 11 20 20 26  0.0030000  0  5 17 12 21 23 11
  23228600.766     6271757.164 6   4887062.725 3
  25141023.927    -3451446.780 5  -2689440.531 3
  21837326.630   -19342490.861 9 -15072058.390 7
  22228968.306   -13369858.340 8 -10418066.797 6
  24156953.397   -13445989.571 6 -10477385.652 2
 91 11 20 20 26 30.0030000  0  5 17 12 21 23 11
  23242881.692     6346792.463 6   4945531.642 3
  25131190.747    -3503140.268 5  -2729721.345 1
  21833620.605   -19361973.834 9 -15087239.889 7
  22237649.388   -13324226.264 8 -10382509.360 6
  24139759.086   -13536339.359 6 -10547787.922 4
 91 11 20 20 27  0.0030000  0  5 17 12 21 23 11
  23257212.370     6422104.205 6   5004215.998 4
  25121423.807    -3554436.341 5  -2769692.306
  21829958.328   -19381210.094 9 -15102229.132 6
  22246361.671   -13278441.717 8 -10346833.112 7
  24122633.146   -13626359.493 6 -10617933.370 4
 91 11 20 20 27 30.0030000  0  5 17 12 21 23 11
  23271599.411     6497710.617 6   5063129.979 2
  25111738.710    -3605328.579 5  -2809348.775 2
  21826347.633   -19400184.449 8 -15117014.327 7
  22255103.916   -13232508.851 8 -10311041.321 7
  24105563.570   -13716043.924 6 -10687817.162 4
 91 11 20 20 28  0.0030000  0  5 17 12 21 23 11
  23286045.801     6573605.029 6   5122268.328 2
  25102137.844    -3655817.105 5  -2848690.421 2
  21822784.299   -19418907.020 9 -15131603.334 7
  22263867.747   -13186443.736 8 -10275146.485 6
  24088560.828   -13805392.680 7 -10757439.477 2
 91 11 20 20 28 30.0030000  0  5 17 12 21 23 11
  23300538.974     6649786.549 6   5181630.437 2
  25092590.359    -3705903.861 4  -2887719.253 3
  21819268.342   -19437392.954 9 -15146007.936 6
  22272659.760   -13140253.518 8 -10239154.127 5
  24071618.970   -13894407.324 7 -10826801.438 3
 91 11 20 20 29  0.0030000  0  5 17 12 21 23 11
  23315088.791     6726244.105 6   5241207.600 3
  25083147.802    -3755588.257 5  -2926434.521 1
  21815785.052   -19455665.054 9 -15160245.931 6
  22281469.153   -13093956.823 8 -10203078.827 6
  24054745.447   -13983087.263 6 -10895902.523 3
 91 11 20 20 29 30.0030000  0  5 17 12 21 23 11
  23329692.582     6802959.282 6   5300985.545 3
  25073763.092    -3804860.740 5  -2964828.517 1
  21812350.029   -19473743.132 9 -15174332.723 7
  22290296.241   -13047558.308 8 -10166924.185 6
  24037937.589   -14071422.697 6 -10964735.201 5
 91 11 20 20 30  0.0030000  0  5 17 12 21 23 11
  23344338.654     6879920.646 6   5360955.310 3
  25064473.434    -3853714.271 5  -3002896.342 1
  21808946.189   -19491631.697 9 -15188271.870 7
  22299150.621   -13001043.665 8 -10130679.067 6
  24021195.973   -14159406.624 7 -11033293.929 3
 91 11 20 20 30 30.0030000  0  5 17 12 21 23 11
  23359026.677     6957126.730 6   5421115.728 2
  25055256.002    -3902153.616 5  -3040641.434 2
  21805581.613   -19509332.117 9 -15202064.416 7
  22308024.179   -12954416.968 8 -10094346.648 7
  24004517.316   -14247043.317 7 -11101582.126 3
 91 11 20 20 31  0.0030000  0  5 17 12 21 23 11
  23373759.983     7034572.406 6   5481462.866 3
  25046121.040    -3950175.085 4  -3078060.844 1
  21802245.218   -19526830.784 8 -15215699.747 7
  22316915.414   -12907676.935 8 -10057925.924 6
  23987909.420   -14334328.806 7 -11169596.716 4
 91 11 20 20 31 30.0030000  0  5 17 12 21 23 11
  23388554.138     7112277.306 6   5542011.979 3
  25037061.306    -3997771.112 4  -3115148.682 1
  21798960.093   -19544108.782 8 -15229163.122 7
  22325840.537   -12860804.531 8 -10021402.009 6
  23971362.670   -14421255.112 7 -11237331.334 5
 91 11 20 20 32  0.0030000  0  5 17 12 21 23 11
  23403390.872     7190272.925 6   5602787.650 3
  25028076.223    -4044932.811 4  -3151898.062 1
  21795713.340   -19561148.978 8 -15242441.201 6
  22334785.152   -12813787.626 8  -9984765.499 6
  23954893.574   -14507813.540 7 -11304779.334 3
 91 11 20 20 32 30.0030000  0  5 17 12 21 23 11
  23418298.942     7268590.902 6   5663814.501 4
  25019194.272    -4091647.076 4  -3188298.914 2
  21792520.543   -19577940.196 9 -15255525.256 6
  22343759.729   -12766617.549 8  -9948009.662 6
  23938492.533   -14593990.666 6 -11371930.254 5
 91 11 20 20 33  0.0030000  0  5 17 12 21 23 11
  23433260.392     7347235.056 6   5725095.515 3
  25010401.666    -4137905.103 5  -3224344.137 1
  21789373.030   -19594476.432 8 -15268410.631 7
  22352770.900   -12719272.699 8  -9911117.628 6
  23922166.737   -14679777.201 6 -11438776.763 3
 91 11 20 20 33 30.0030000  0  5 17 12 21 23 11
  23448285.396     7426205.460 6   5786630.720 2
  25001680.989    -4183700.405 5  -3260028.907 2
  21786273.470   -19610765.889 8 -15281103.719 7
  22361812.032   -12671743.085 8  -9874081.629 6
  23905924.581   -14765166.623 7 -11505313.851 4
 91 11 20 20 34  0.0030000  0  5 17 12 21 23 11
  23463375.140     7505486.905 6   5848408.308 2
  24993045.766    -4229035.903 4  -3295355.001 2
  21783218.286   -19626822.671 8 -15293615.490 8
  22370890.647   -12624048.683 8  -9836917.220 7
  23889742.383   -14850161.514 7 -11571543.535 4
 91 11 20 20 34 30.0030000  0  5 17 12 21 23 11
  23478517.357     7585044.137 6   5910400.835 3
  24984505.595    -4273917.700 4  -3330327.744 2
  21780207.181   -19642658.110 9 -15305954.782 7
  22379992.960   -12576209.154 8  -9799639.715 6
  23873644.417   -14934767.821 7 -11637470.385 3
 91 11 20 20 35  0.0030000  0  5 17 12 21 23 11
  23493702.449     7664843.955 6   5972582.387 3
  24976057.735    -4318348.302 4  -3364948.867 1
  21777236.526   -19658278.545 8 -15318126.531 7
  22389124.328   -12528232.797 8  -9762255.565 6
  23857619.621   -15018987.494 7 -11703095.998 4
 91 11 20 20 35 30.0030000  0  5 17 12 21 23 11
  23508935.495     7744885.536 6   6034952.264 3
  24967691.420    -4362323.477 5  -3399215.055 1
  21774298.572   -19673687.926 8 -15330133.800 7
  22398276.688   -12480135.238 8  -9724776.986 7
  23841669.459   -15102816.019 7 -11768416.862 4
 91 11 20 20 36  0.0030000  0  5 17 12 21 23 11
  23524210.229     7825173.243 6   6097513.969 2
  24959398.274    -4405836.710 4  -3433121.380 1
  21771415.168   -19688872.853 9 -15341966.199 7
  22407450.948   -12431914.018 8  -9687202.042 6
  23825790.947   -15186246.623 7 -11833427.589 4
 91 11 20 20 36 30.0030000  0  5 17 12 21 23 11
  23539534.417     7905711.951 7   6160271.257 2
  24951226.529    -4448883.846 5  -3466664.633 1
  21768566.542   -19703816.850 9 -15353610.842 7
  22416657.578   -12383549.074 8  -9649515.131 7
  23809990.682   -15269274.782 7 -11898124.774 4
 91 11 20 20 37  0.0030000  0  5 17 12 21 23 11
  23554917.063     7986523.829 6   6223241.405 2
  24943124.934    -4491459.513 5  -3499840.269 2
  21765773.077   -19718514.925 9 -15365063.860 7
  22425887.888   -12335029.000 8  -9611707.329 6
  23794268.368   -15351894.680 7 -11962503.836 4
 91 11 20 20 37 30.0030000  0  5 17 12 21 23 11
  23570348.884     8067624.105 6   6286436.265 3
  24935099.788    -4533564.301 4  -3532649.181 2
  21763023.673   -19732973.867 9 -15376330.525 7
  22435149.068   -12286361.055 8  -9573784.275 5
  23778618.000   -15434106.711 7 -12026565.049 3
 91 11 20 20 38  0.0030000  0  5 17 12 21 23 11
  23585837.366     8149019.359 6   6349860.972 3
  24927178.681    -4575190.209 5  -3565084.841 1
  21760312.048   -19747185.816 8 -15387404.739 7
  22444438.743   -12237543.225 8  -9535744.440 6
  23763058.182   -15515902.812 7 -12090302.151 3
 91 11 20 20 38 30.0030000  0  5 17 12 21 23 11
  23601384.602     8230716.988 6   6413521.337 4
  24919360.093    -4616331.345 5  -3597142.681 2
  21757654.694   -19761159.519 9 -15398293.313 7
  22453755.694   -12188591.205 8  -9497600.058 6
  23747574.499   -15597276.359 7 -12153710.042 4
 91 11 20 20 39  0.0030000  0  5 17 12 21 23 11
  23616986.109     8312699.892 6   6477403.949 4
  24911622.143    -4656986.928 5  -3628822.251 1
  21755038.994   -19774916.495 9 -15409013.009 7
  22463090.321   -12139528.365 8  -9459369.329 7
  23732171.454   -15678226.131 7 -12216787.689 3
 91 11 20 20 39 30.0030000  0  5 17 12 21 23 11
  23632635.569     8394958.344 6   6541501.309 2
  24903974.445    -4697155.151 5  -3660121.920 2
  21752462.888   -19788456.064 9 -15419563.285 6
  22472443.254   -12090370.643 8  -9421064.667 7
  23716849.360   -15758750.168 7 -12279533.571 3
 91 11 20 20 40  0.0030000  0  5 17 12 21 23 11
  23648341.096     8477481.137 6   6605804.620 2
  24896420.264    -4736840.639 5  -3691045.903 2
  21749929.640   -19801767.496 9 -15429935.797 7
  22481819.256   -12041124.283 8  -9382690.935 6
  23701605.827   -15838852.419 7 -12341950.818 4
 91 11 20 20 40 30.0030000  0  5 17 12 21 23 11
  23664093.094     8560247.627 6   6670297.827 4
  24888963.227    -4776046.704 5  -3721595.980 2
  21747438.063   -19814856.825 9 -15440135.257 7
  22491203.669   -11991785.149 8  -9344244.928 6
  23686445.619   -15918535.538 7 -12404041.505 4
 91 11 20 20 41  0.0030000  0  5 17 12 21 23 11
  23679896.343     8643252.175 6   6734976.547 3
  24881593.424    -4814772.644 5  -3751772.146 1
  21744991.455   -19827723.349 9 -15450161.095 7
  22500620.452   -11942331.876 8  -9305709.962 5
  23671361.860   -15997798.758 7 -12465804.935 3
 91 11 20 20 41 30.0030000  0  5 17 12 21 23 11
  23695731.089     8726516.147 6   6799857.388 2
  24874308.482    -4853012.711 5  -3781569.547 2
  21742586.815   -19840359.620 9 -15460007.535 7
  22510054.319   -11892738.590 8  -9267065.902 6
  23656355.737   -16076635.591 7 -12527236.152 3
 91 11 20 20 42  0.0030000  0  5 17 12 21 23 11
  23711628.482     8810041.075 6   6864941.596 4
  24867120.650    -4890760.749 5  -3810983.804 2
  21740218.768   -19852774.763 8 -15469681.664 7
  22519525.058   -11842984.438 8  -9228296.519 6
  23641435.068   -16155039.250 7 -12588329.837 6
 91 11 20 20 42 30.0030000  0  5 17 12 21 23 11
  23727569.954     8893833.798 6   6930234.468 2
  24860042.248    -4928007.210 5  -3840006.966 1
  21737898.064   -19864979.645 9 -15479191.944 7
  22529022.479   -11793058.505 8  -9189393.275 6
  23626602.540   -16232999.944 7 -12649078.344 4
 91 11 20 20 43  0.0030000  0  5 17 12 21 23 11
  23743569.273     8977908.033 6   6995746.737 2
  24853046.299    -4964754.271 5  -3868641.181 4
  21735614.249   -19876978.691 9 -15488541.844 7
  22538552.880   -11742976.377 8  -9150368.332 6
  23611850.056   -16310519.302 7 -12709482.940 3
 91 11 20 20 43 30.0030000  0  5 17 12 21 23 11
  23759618.360     9062253.914 6   7061470.640 2
  24846144.773    -5001004.551 5  -3896888.079 1
  21733372.996   -19888767.762 9 -15497728.127 7
  22548108.777   -11692762.052 7  -9111240.380 6
  23597180.618   -16387599.241 7 -12769545.145 4
 91 11 20 20 44  0.0030000  0  5 17 12 21 23 11
  23775725.609     9146868.971 6   7127404.266 2
  24839351.473    -5036747.644 5  -3924739.616 2
  21731168.021   -19900334.082 8 -15506740.848 7
  22557685.945   -11642430.040 7  -9072020.741 6
  23582596.912   -16464229.086 7 -12829256.653 3
 91 11 20 20 44 30.0030000  0  5 17 12 21 23 11
  23791882.330     9231757.664 6   7193551.143 4
  24832635.530    -5071980.200 5  -3952193.473 2
  21729011.924   -19911672.447 8 -15515575.942 7
  22567286.496   -11591988.767 8  -9032715.961 6
  23568098.347   -16540404.840 7 -12888614.279 2
 91 11 20 20 45  0.0030000  0  5 17 12 21 23 11
  23808085.206     9316916.735 6   7259908.735 1
  24826040.691    -5106701.928 6  -3979249.607
  21726900.186   -19922778.964 9 -15524230.359 7
  22576905.039   -11541446.364 7  -8993332.354 6
  23553694.221   -16616125.683 7 -12947617.438 4
 91 11 20 20 45 30.0030000  0  5 17 12 21 23 11
  23824338.757     9402355.556 6   7326484.287 2
  24819529.491    -5140902.345 5  -4005899.278 2
  21724833.714   -19933642.328 9 -15532695.322 7
  22586545.167   -11490784.154 7  -8953855.393 4
  23539374.922   -16691380.521 7 -13006257.499 4
 91 11 20 20 46  0.0030000  0  5 17 12 21 23 11
  23840648.062     9488075.674 6   7393279.034 2
  24813125.331    -5174579.430 5  -4032141.146 1
  21722808.320   -19944273.922 9 -15540979.683 7
  22596210.162   -11439991.203 7  -8914276.550 6
  23525144.374   -16766166.840 7 -13064532.470 3
 91 11 20 20 46 30.0030000  0  5 17 12 21 23 11
  23857019.421     9574080.572 6   7460295.657 3
  24806811.703    -5207729.886 5  -4057972.451 2
  21720830.582   -19954675.872 9 -15549085.094 8
  22605899.762   -11389066.983 7  -8874595.423 5
  23510998.372   -16840480.707 7 -13122439.258 4
 91 11 20 20 47  0.0030000  0  5 17 12 21 23 11
  23873441.768     9660358.850 6   7527525.297 2
  24800595.499    -5240348.465 5  -4083389.482 2
  21718900.814   -19964837.951 9 -15557003.608 7
  22615613.932   -11338003.619 7  -8834805.883 6
  23496952.204   -16914316.263 7 -13179973.377 4
 91 11 20 20 47 30.0030000  0  5 17 12 21 23 11
  23889908.753     9746889.548 6   7594951.662 2
  24794491.134    -5272440.233 5  -4108396.071 2
  21717005.232   -19974776.977 9 -15564748.305 7
  22625359.582   -11286807.511 8  -8794912.881 6
  23482990.860   -16987677.853 7 -13237138.185 4
 91 11 20 20 48  0.0030000  0  5 17 12 21 23 11
  23906419.539     9833665.540 6   7662569.085 1
  24788494.680    -5303999.860 5  -4132987.774 1
  21715156.102   -19984500.507 9 -15572325.078 7
  22635130.133   -11235483.828 8  -8754920.478 6
  23469121.270   -17060559.681 7 -13293929.103 4
 91 11 20 20 48 30.0030000  0  5 17 12 21 23 11
  23922975.276     9920684.244 6   7730375.690 1
  24782580.976    -5335025.331 5  -4157163.428 3
  21713348.661   -19994005.944 9 -15579731.913 7
  22644913.860   -11184038.276 7  -8714833.113 5
  23455345.510   -17132958.975 7 -13350344.037 4
 91 11 20 20 49  0.0030000  0  5 17 12 21 23 11
  23939575.371    10007935.581 6   7798363.601 3
  24776784.188    -5365515.072 5  -4180921.570 2
  21711578.982   -20003294.516 8 -15586969.767 8
  22654730.864   -11132470.969 7  -8674650.865 6
  23441653.982   -17204873.443 7 -13406381.216 5
 91 11 20 20 49 30.0030000  0  5 17 12 21 23 11
  23956230.347    10095433.461 6   7866543.540 2
  24771085.436    -5395466.565 5  -4204260.256 2
  21709850.678   -20012370.416 8 -15594041.911 7
  22664560.152   -11080798.991 7  -8634387.057 5
  23428068.882   -17276299.678 7 -13462037.917 4
 91 11 20 20 50  0.0030000  0  5 17 12 21 23 11
  23972926.088    10183183.846 6   7934920.288 2
  24765490.704    -5424881.151 5  -4227180.661 2
  21708160.746   -20021234.225 8 -15600948.778 8
  22674414.936   -11029035.424 8  -8594051.847 6
  23414566.829   -17347238.595 7 -13517314.906 4
 91 11 20 20 50 30.0030000  0  5 17 12 21 23 11
  23989668.001    10271178.340 6   8003487.242 2
  24759992.210    -5453759.070 5  -4249682.865 2
  21706520.583   -20029878.465 8 -15607684.551 7
  22684281.690   -10977181.819 8  -8553646.493 5
  23401160.717   -17417689.480 7 -13572211.616 4
 91 11 20 20 51  0.0030000  0  5 17 12 21 23 11
  24006469.873    10359428.328 6   8072253.259 2
  24754594.457    -5482091.831 5  -4271760.590 2
  21704916.402   -20038301.914 8 -15614248.287 7
  22694167.658   -10925234.323 8  -8513168.005 5
  23387847.823   -17487643.592 7 -13626721.246 4
 91 11 20 20 51 30.0030000  0  5 17 12 21 23 11
  24023311.009    10447946.172 6   8141228.041 3
  24749310.007    -5509881.166 5  -4293414.597
  21703352.374   -20046515.072 9 -15620648.155 7
  22704068.300   -10873189.305 8  -8472613.510 6
  23374625.479   -17557102.199 7 -13680844.730 4
 91 11 20 20 52  0.0030000  0  5 17 12 21 23 11
  24040209.416    10536742.540 6   8210419.820 2
  24744134.098    -5537115.632 5  -4314636.412 2
  21701832.739   -20054509.652 9 -15626877.708 8
  22713997.719   -10821012.738 8  -8431956.514 6
  23361507.173   -17626052.555 7 -13734572.195 4
 91 11 20 20 52 30.0030000  0  5 17 12 21 23 11
  24057169.561    10625849.701 6   8279853.742 3
  24739063.396    -5563766.271 6  -4335403.069 1
  21700360.761   -20062254.214 8 -15632912.442 6
  22723960.728   -10768663.793 8  -8391165.196 4
  23348490.480   -17694464.892 7 -13787880.460 3
 91 11 20 20 53  0.0030000  0  5 17 12 21 23 11
  24074187.886    10715305.235 6   8349559.196 1
  24734099.734    -5589798.354 5  -4355687.553 2
  21698937.940   -20069722.012 9 -15638731.522 7
  22733959.703   -10716107.385 8  -8350212.224 5
  23335581.420   -17762303.955 7 -13840741.955 2
 91 11 20 20 53 30.0030000  0  5 17 12 21 23 11
  24091275.750    10805113.316 6   8419539.315 2
  24729275.482    -5615196.612 5  -4375478.278 2
  21697575.375   -20076893.811 9 -15644319.955 7
  22744005.148   -10663317.585 8  -8309077.360 5
  23322782.680   -17829553.549 7 -13893144.139 3
 91 11 20 20 54  0.0030000  0  5 17 12 21 23 11
  24108429.873    10895267.483 5   8489789.193 2
  24724552.249    -5639955.608 5  -4394770.847 1
  21696268.894   -20083750.340 9 -15649662.711 7
  22754097.359   -10610294.558 8  -8267760.789 5
  23310099.355   -17896207.256 7 -13945082.044 5
 91 11 20 20 54 30.0030000  0  5 17 12 21 23 11
  24125652.958    10985772.984 6   8560313.172 1
  24719972.317    -5664066.458 5  -4413558.499 2
  21695027.137   -20090282.551 9 -15654752.751 7
  22764227.350   -10557056.521 8  -8226276.671 5
  23297531.761   -17962255.487 7 -13996548.121 4
 91 11 20 20 55  0.0030000  0  5 17 12 21 23 11
  24142942.285    11076626.919 6   8631108.368 1
  24715502.112    -5687528.109 5  -4431840.176 2
  21693847.764   -20096489.662 9 -15659589.467 8
  22774398.105   -10503619.134 7  -8184637.247 5
  23285080.472   -18027696.602 7 -14047541.081 4
 91 11 20 20 55 30.0030000  0  5 17 12 21 23 11
  24160306.264    11167830.272 6   8702176.069 1
  24711167.112    -5710342.191 5  -4449617.256 3
  21692724.738   -20102370.938 9 -15664172.290 8
  22784599.450   -10449995.438 7  -8142852.644 6
  23272740.725   -18092531.636 7 -14098061.826 5
 91 11 20 20 56  0.0030000  0  5 17 12 21 23 11
  24177723.309    11259378.578 6   8773512.259 1
  24706949.638    -5732515.112 5  -4466894.838 1
  21691667.376   -20107933.512 8 -15668506.764 8
  22794834.962   -10396212.367 7  -8100943.835 5
  23260516.080   -18156765.939 7 -14148114.477 5
 91 11 20 20 56 30.0030000  0  5 17 12 21 23 11
  24195196.718    11351241.236 5   8845093.327 1
  24702843.375    -5754051.473 5  -4483676.395 1
  21690663.361   -20113209.367 8 -15672617.830 7
  22805098.360   -10342275.114 7  -8058914.916 5
  23248409.869   -18220403.240 8 -14197701.914 5
 91 11 20 20 57  0.0030000  0  5 17 12 21 23 11
  24212741.167    11443387.256 5   8916895.225 3
  24698873.521    -5774955.434 5  -4499965.079 1
  21689712.132   -20118214.811 9 -15676518.182 7
  22815396.536   -10288170.002 7  -8016755.181 5
  23236411.867   -18283446.967 8 -14246826.811 4
 91 11 20 20 57 30.0030000  0  5 17 12 21 23 11
  24230319.801    11535799.459 5   8988904.503 2
  24695018.192    -5795227.291 5  -4515761.265 2
  21688809.450   -20122960.420 9 -15680216.053 7
  22825727.973   -10233884.495 7  -7974454.848 4
  23224529.298   -18345896.436 7 -14295488.675 5
 91 11 20 20 58  0.0030000  0  5 17 12 21 23 11
  24247959.284    11628467.598 6   9061113.256 2
  24691273.794    -5814863.275 6  -4531062.020 2
  21687951.440   -20127450.149 9 -15683714.548 8
  22836088.813   -10179408.211 7  -7932005.864 4
  23212756.439   -18407746.815 7 -14343683.727 4
 91 11 20 20 58 30.0030000  0  5 17 12 21 23 11
  24265635.656    11721393.148 5   9133522.533 2
  24687662.192    -5833862.713 6  -4545866.577 2
  21687147.404   -20131691.118 9 -15687019.206 8
  22846499.996   -10124727.225 7  -7889397.354 5
  23201100.217   -18468996.831 8 -14391410.940 5
 91 11 20 20 59  0.0030000  0  5 17 12 21 23 11
  24283378.863    11814615.203 5   9206162.873 2
  24684166.599    -5852220.488 6  -4560171.250 1
  21686389.227   -20135651.555 8 -15690105.253 8
  22856946.273   -10069836.154 7  -7846625.173 5
  23189564.507   -18529640.067 8 -14438665.333 4
 91 11 20 20 59 30.0030000  0  5 17 12 21 23 11
  24301190.143    11908156.216 6   9279052.191
  24680796.648    -5869937.878 5  -4573976.907 1
  21685695.214   -20139318.495 9 -15692962.617 7
  22867426.106   -10014753.054 7  -7803703.359 6
  23178138.209   -18589677.062 8 -14485447.350 5
 91 11 20 21  0  0.0030000  0  5 17 12 21 23 11
  24319049.970    12002034.642 6   9352204.461 2
  24677538.501    -5887009.844 5  -4587279.558 2
  21685054.843   -20142684.903 9 -15695585.788 7
  22877942.235    -9959488.804 7  -7760640.392 6
  23166827.937   -18649102.146 7 -14531752.568 5
 91 11 20 21  0 30.0030000  0  5 17 12 21 23 11
  24336964.678    12096252.419 6   9425620.701 2
  24674420.949    -5903436.807 5  -4600079.692 3
  21684471.448   -20145749.674 9 -15697973.904 8
  22888488.937    -9904057.288 7  -7717447.090 6
  23155634.879   -18707914.363 7 -14577580.218 4
